GFSNE_sfc_temp_000.txt.gz
Temp
47 47 48 49 49 50 51 50 46 41 43 48 46 52 50 52 52 52 52 53 49 48 49 50 53 56 58 59 60 61 62 62 62 62 62 63 63 64
48 46 47 48 48 49 50 50 50 46 42 49 50 48 50 52 51 50 50 51 49 47 46 47 49 52 55 57 57 58 59 60 61 61 61 61 63 63
45 45 46 47 46 47 47 48 47 47 42 46 49 50 47 47 48 48 49 48 50 47 45 45 46 48 49 54 54 56 57 57 58 59 60 61 62 62
44 44 44 49 45 45 45 45 46 47 44 42 46 46 46 47 47 46 48 48 46 48 46 45 45 45 46 46 50 52 53 54 55 56 57 59 59 59
43 42 43 43 42 43 44 44 45 48 45 43 43 47 47 44 44 45 45 44 46 48 45 43 44 45 45 45 46 49 50 50 49 50 52 53 55 56
41 40 40 39 38 38 39 39 41 40 40 40 42 43 45 46 42 39 39 39 40 46 45 43 43 44 44 45 45 47 49 49 49 48 46 46 48 51
37 37 37 37 39 38 37 36 36 36 37 37 37 40 41 41 39 40 38 37 38 39 40 42 41 44 44 44 45 45 47 49 48 47 47 46 45 46
33 34 35 36 36 37 37 37 36 33 33 33 34 33 35 38 41 39 38 35 36 35 36 38 36 39 40 45 45 44 45 47 48 47 46 45 45 44
32 32 33 36 36 36 36 36 36 37 34 34 32 34 34 36 38 35 34 34 38 35 36 33 33 34 34 38 41 43 44 45 47 46 45 44 43 41
31 32 32 32 33 34 34 33 34 35 37 36 34 35 37 39 39 40 35 35 34 34 33 32 31 30 33 34 40 42 43 44 44 44 44 42 40 40
32 33 33 32 34 36 33 31 30 32 38 38 39 39 39 38 39 38 33 33 32 31 32 28 29 29 30 31 33 39 41 42 43 42 42 41 39 38
33 33 34 33 33 33 31 30 29 31 33 34 35 37 38 37 37 36 36 33 32 30 32 26 28 29 26 30 31 33 34 36 39 40 39 38 37 35
30 30 32 34 34 33 33 31 30 33 33 33 34 34 36 35 35 37 37 36 34 33 31 28 26 27 27 27 30 31 32 32 32 33 37 37 37 34
28 30 31 33 33 33 32 32 32 31 32 31 30 31 32 34 36 37 38 38 39 37 33 30 25 27 27 26 25 30 31 32 32 31 31 33 33 32
29 30 32 32 33 31 32 32 31 29 28 29 30 31 33 35 35 35 33 36 35 34 32 32 30 30 30 27 26 27 28 29 31 30 30 28 26 26
30 30 29 29 29 30 30 31 31 31 29 29 30 32 34 35 34 33 31 31 29 29 31 31 32 31 28 29 30 26 27 25 29 30 30 28 28 29
29 30 29 28 28 28 29 31 29 28 29 31 30 31 32 32 32 31 30 29 28 27 27 30 30 30 29 29 26 26 26 26 28 27 26 23 25 27
29 26 25 25 26 26 27 29 30 27 28 28 27 30 31 32 30 30 30 29 28 25 26 27 26 25 26 26 30 25 25 26 26 26 25 24 23 26
27 25 24 24 24 25 26 27 27 31 30 29 27 31 30 29 30 29 29 28 27 27 27 27 25 25 22 19 23 31 25 25 25 24 25 25 24 24
27 25 24 24 25 24 25 26 27 28 28 29 31 31 28 28 28 28 27 26 25 26 25 26 25 27 24 20 19 19 29 25 24 23 23 23 24 28
26 26 27 25 24 25 25 25 26 26 27 28 28 28 29 29 28 28 25 26 25 25 24 24 26 27 23 22 18 15 18 29 27 24 24 21 20 21
24 25 25 26 26 25 24 24 24 25 26 26 25 25 26 27 26 25 25 24 25 22 19 22 24 26 22 21 16 13 15 17 23 25 25 23 21 18
21 22 24 25 25 25 25 24 24 23 24 25 24 24 23 21 23 22 21 21 21 20 20 21 24 24 23 20 18 16 15 16 17 16 14 22 23 23

GFSNE_sfc_temp_003.txt.gz
Temp
44 44 44 46 45 47 47 46 42 38 41 47 46 52 53 50 50 50 50 51 49 47 48 49 51 53 54 55 58 60 60 61 62 62 62 63 63 64
44 41 42 44 44 44 45 45 44 42 38 46 46 48 49 49 50 50 49 50 48 46 45 46 47 49 50 51 54 56 59 60 61 61 61 61 62 63
41 41 42 43 43 43 44 44 44 44 40 44 47 45 45 46 47 47 48 47 47 47 45 44 44 45 46 47 48 51 55 57 58 59 60 60 61 62
40 38 39 45 40 39 40 40 41 42 41 39 43 44 43 45 44 43 45 47 45 47 45 44 44 45 45 45 45 46 47 54 54 56 57 58 60 61
39 38 39 38 37 37 36 36 38 42 39 38 37 39 40 40 41 42 42 42 44 47 45 42 43 43 44 44 45 45 45 46 51 51 52 54 56 58
36 35 35 34 33 32 35 34 36 35 36 36 36 37 38 40 38 37 37 37 38 43 44 42 42 43 44 44 44 45 45 45 45 50 49 49 51 53
33 34 34 35 39 38 36 34 34 33 33 33 33 35 36 36 33 35 34 34 35 37 37 37 38 39 43 45 45 44 44 44 45 45 48 48 49 50
29 32 33 36 35 36 36 36 35 31 30 31 31 31 34 35 33 33 32 31 31 33 35 35 35 38 39 42 42 42 43 43 44 44 45 48 47 47
29 30 31 34 34 33 34 35 35 36 34 33 30 30 32 35 36 32 33 32 30 33 36 35 30 31 33 36 38 39 40 43 43 43 43 45 47 46
29 30 29 29 31 32 31 31 32 33 34 35 34 33 34 35 35 36 35 34 32 34 34 33 24 25 27 34 37 38 40 42 42 42 43 44 45 44
31 31 31 30 33 34 32 29 29 31 36 36 37 37 37 37 37 34 31 31 31 31 32 31 29 27 24 24 31 36 36 40 42 42 43 43 43 44
30 31 33 32 33 33 31 30 28 30 31 31 32 35 37 36 36 35 33 29 29 30 29 31 28 27 24 22 27 32 33 37 40 41 43 42 43 44
28 29 30 32 33 34 34 31 30 32 32 31 31 32 33 33 35 36 36 33 29 30 32 31 27 27 25 22 25 31 31 33 34 36 40 41 41 41
27 29 29 31 32 32 32 32 32 31 31 30 30 30 31 32 34 35 36 36 36 34 34 33 29 27 24 23 24 27 30 31 32 31 32 33 34 36
30 30 31 32 31 30 31 31 31 30 28 27 27 29 31 33 34 34 33 34 34 36 36 32 29 29 28 21 24 22 27 29 30 28 28 29 29 30
29 29 29 29 28 28 27 30 30 30 29 28 27 29 32 32 32 33 32 32 31 28 32 32 31 30 28 27 27 26 27 25 28 28 27 26 27 28
27 26 24 24 25 26 26 27 28 26 28 28 27 27 29 30 31 32 31 29 27 26 27 28 29 29 28 28 25 27 26 27 28 27 27 25 26 26
26 23 22 22 21 23 23 24 27 27 27 27 27 28 29 30 30 29 29 29 27 25 25 26 26 25 26 25 28 25 25 25 26 25 26 24 24 26
25 22 20 21 20 23 23 24 24 26 29 27 27 30 29 28 29 28 28 27 24 24 24 25 24 20 20 15 23 28 25 24 24 24 25 25 24 24
25 23 23 21 22 22 22 22 24 24 26 26 29 27 27 27 27 26 26 19 23 23 23 24 24 22 22 19 18 18 28 24 24 22 22 23 25 27
22 23 23 24 23 22 22 22 22 23 22 23 23 24 24 19 20 21 21 17 18 21 22 21 21 22 21 21 16 15 17 28 26 24 22 22 21 21
19 20 21 22 22 23 22 22 21 22 22 22 21 21 21 22 22 22 19 20 20 16 18 20 23 24 19 19 13 12 16 19 24 25 26 25 21 18
17 18 18 19 20 20 22 22 21 20 20 20 20 21 21 21 21 20 19 19 20 20 20 21 22 21 19 18 15 13 12 14 16 15 17 24 26 26

GFSNE_sfc_temp_006.txt.gz
Temp
41 41 42 43 43 44 43 42 39 34 37 44 44 49 49 47 48 48 48 50 49 47 47 48 50 52 52 53 54 55 55 61 62 63 63 63 63 64
41 39 41 42 42 42 42 42 40 38 35 43 45 46 48 50 50 47 47 49 48 46 44 44 47 48 48 49 50 51 54 54 57 60 61 61 62 63
39 39 40 41 40 39 39 40 39 38 36 40 44 45 45 45 47 47 46 45 46 45 43 44 44 44 44 45 45 47 48 51 51 55 59 60 62 62
37 38 39 43 39 37 36 36 37 37 36 34 38 40 41 43 43 42 45 47 45 47 46 45 44 43 42 43 43 43 45 46 47 50 54 57 60 61
38 36 36 35 33 32 32 32 33 37 34 33 32 36 37 39 39 41 41 41 44 47 45 43 42 43 42 43 43 43 43 43 43 45 45 51 54 57
33 33 33 33 31 31 32 31 33 32 33 32 32 33 33 36 36 34 36 37 37 44 45 42 42 43 43 42 42 43 43 43 43 44 43 44 47 52
31 32 33 34 37 36 35 33 32 31 31 31 30 32 32 32 31 32 31 32 34 35 36 38 38 38 39 42 44 44 44 44 43 43 43 43 43 47
29 31 32 34 34 35 36 36 34 30 29 28 28 28 29 30 32 32 30 29 31 32 35 34 36 37 38 37 40 39 40 41 42 43 43 43 44 43
29 29 30 33 33 32 33 34 34 35 33 31 29 30 30 32 31 29 29 30 31 35 34 33 32 33 31 36 38 39 39 40 40 41 42 42 41 42
29 29 29 29 30 31 30 29 30 31 32 33 32 32 33 34 33 33 31 31 31 34 34 31 31 24 23 28 37 38 38 38 38 39 41 41 41 41
30 30 31 31 33 35 32 29 30 30 34 35 36 36 36 36 35 32 29 27 26 29 31 33 31 30 23 23 25 35 37 37 37 37 39 41 41 40
28 29 32 31 32 33 30 29 28 29 31 31 31 32 35 34 36 35 32 28 27 20 28 30 23 24 27 19 20 22 26 34 36 37 39 41 41 43
27 28 29 31 32 32 31 29 29 31 31 30 30 31 31 30 31 33 33 32 29 28 30 30 24 21 22 21 19 20 23 27 32 34 38 40 41 42
27 28 29 31 32 32 31 31 32 31 30 29 28 29 30 30 31 32 33 33 34 33 32 31 26 25 20 16 20 19 19 23 31 31 32 36 39 40
29 30 31 31 30 29 31 31 29 29 29 27 27 28 30 32 32 31 30 32 30 33 34 32 31 27 29 27 21 16 19 20 25 27 28 29 30 33
27 26 26 26 24 24 26 27 27 28 28 28 27 29 30 30 30 29 27 31 31 31 34 34 33 32 28 22 25 18 23 23 20 27 26 27 28 29
26 23 23 22 22 23 24 25 26 28 27 27 28 26 27 27 28 28 30 31 29 26 27 30 32 31 30 27 22 27 21 25 23 25 26 25 25 27
26 20 20 20 20 22 21 22 24 25 26 23 19 22 22 26 27 27 29 29 28 26 25 25 26 26 26 25 29 25 23 24 21 25 26 24 23 25
23 22 20 20 20 21 21 21 21 23 25 26 28 27 28 27 30 28 28 27 26 26 25 26 27 25 20 18 20 28 23 24 23 24 25 25 23 24
22 21 20 21 21 21 20 20 20 22 22 23 23 24 24 23 23 24 24 23 23 22 23 25 25 25 22 17 14 15 28 24 24 22 22 24 25 28
19 20 19 19 20 21 20 18 18 19 20 20 20 21 21 18 20 21 20 20 18 21 20 21 21 23 21 20 15 14 20 29 27 23 23 22 21 21
16 17 18 18 18 18 19 19 17 18 18 18 19 19 20 19 20 21 19 16 17 16 18 21 23 23 18 19 11 6 15 20 26 27 27 25 21 18
15 14 15 15 16 16 17 17 20 16 18 17 16 16 18 18 17 17 16 17 19 20 20 19 21 20 19 17 15 12 13 16 17 16 14 23 27 27

GFSNE_sfc_temp_009.txt.gz
Temp
41 40 38 39 39 40 41 40 36 32 34 39 38 44 45 44 46 47 47 49 48 46 46 46 51 51 51 51 53 54 54 55 56 61 61 62 64 64
41 38 38 39 39 39 40 40 39 36 32 37 39 40 43 46 46 46 46 49 47 46 44 45 45 48 48 48 48 50 52 54 53 54 58 60 61 63
38 38 38 38 38 37 37 38 38 37 33 36 38 40 40 41 43 43 45 44 45 46 44 42 43 44 45 44 45 45 46 48 52 52 53 55 60 62
36 36 36 41 36 35 34 34 34 34 33 31 33 35 36 39 40 39 43 45 43 45 45 45 45 43 43 42 42 42 43 44 45 47 49 51 52 59
35 34 34 33 32 31 32 31 31 35 32 31 30 33 33 35 36 38 39 39 42 46 44 44 44 43 43 42 42 43 42 43 42 42 43 45 48 50
32 32 31 30 30 30 31 30 32 30 30 30 30 31 31 34 32 32 33 35 36 42 43 42 42 43 43 43 42 42 43 44 43 42 41 41 42 44
31 31 31 33 37 35 34 32 30 30 30 29 29 29 30 29 30 32 31 33 33 34 35 37 37 38 39 41 43 43 42 41 43 43 42 42 41 42
29 30 30 33 32 34 34 35 34 30 28 27 27 26 27 27 28 28 28 28 28 32 32 31 35 36 37 37 39 40 40 40 40 41 41 41 41 41
28 28 30 32 32 31 32 33 33 34 32 30 28 29 29 30 32 29 28 27 28 31 33 29 28 29 33 36 39 39 39 40 40 40 39 39 40 40
28 29 28 28 30 31 31 30 31 32 31 31 30 30 31 32 32 32 30 29 30 29 32 29 28 27 25 30 37 38 39 39 38 38 38 38 39 39
28 29 29 28 31 33 30 28 28 30 34 35 35 34 35 35 34 31 28 27 25 27 26 29 28 22 21 29 29 36 38 37 37 38 39 38 39 39
28 29 31 30 31 32 29 28 26 28 30 31 31 32 35 33 35 33 31 27 27 23 25 26 24 24 28 19 19 22 25 34 36 36 37 37 38 39
26 28 29 31 31 32 32 29 29 30 29 29 30 30 30 31 31 32 32 31 29 28 30 29 23 23 23 25 17 18 23 21 25 29 35 35 37 39
27 28 29 31 31 31 30 31 32 30 29 28 28 28 28 29 31 32 32 32 34 33 32 30 27 25 22 25 27 17 15 17 19 20 23 32 35 36
29 29 30 30 29 27 28 29 27 27 28 27 27 28 30 31 32 31 31 32 33 33 33 32 30 26 26 28 21 16 18 16 16 16 19 25 28 30
27 26 25 26 24 24 25 26 26 26 26 27 27 28 29 28 29 30 29 28 29 29 32 33 32 32 28 27 28 26 15 21 19 15 16 17 23 28
25 22 23 21 20 21 22 23 24 24 24 26 25 25 26 27 27 27 28 28 27 26 29 32 33 32 32 31 25 24 23 19 18 17 16 16 18 21
24 21 19 18 17 19 19 19 20 22 23 24 24 23 23 25 25 24 28 28 27 27 26 26 27 26 26 25 30 22 24 24 20 16 17 16 17 23
20 19 18 17 18 20 19 18 18 21 22 23 23 25 26 26 26 27 28 28 26 26 24 25 26 26 23 21 22 27 23 23 17 18 17 16 18 24
19 18 17 17 17 18 19 18 18 17 18 19 20 20 21 23 23 24 25 23 21 21 21 24 25 25 24 22 19 20 27 16 13 14 17 23 25 28
17 17 16 16 16 16 16 17 15 15 14 15 16 17 17 22 22 19 20 19 22 23 21 21 21 23 22 21 17 16 20 29 23 16 18 19 18 20
14 15 15 15 15 15 14 14 17 17 16 16 15 15 15 14 18 20 18 16 17 13 17 19 23 24 21 19 14 10 12 17 23 25 26 25 21 18
12 13 13 13 14 14 14 13 14 15 16 14 13 13 11 10 14 14 12 13 13 13 13 16 19 19 18 17 16 13 13 14 15 17 16 23 27 27

GFSNE_sfc_temp_012.txt.gz
Temp
39 39 39 40 40 40 41 40 36 32 34 37 37 43 44 44 45 45 45 47 47 47 47 46 46 51 53 52 52 52 54 55 54 54 56 62 63 63
40 39 39 40 40 39 40 39 37 36 32 37 38 40 43 46 45 45 44 47 46 45 45 45 44 45 48 50 50 50 50 52 54 53 53 57 61 61
39 38 37 37 36 36 36 36 36 35 32 36 37 39 40 40 42 43 43 43 43 45 45 45 45 44 43 45 45 46 47 48 48 50 52 53 56 61
35 34 34 39 35 35 34 33 33 34 33 31 33 35 36 39 40 40 43 44 42 44 45 45 45 45 44 43 43 43 43 43 44 45 46 48 51 53
33 32 32 32 31 31 32 31 32 35 32 32 32 33 35 36 36 38 39 40 41 44 44 43 44 45 45 44 43 43 43 42 42 42 42 43 44 46
32 31 31 30 30 30 31 31 32 31 31 30 31 31 31 34 34 33 33 36 37 42 43 42 42 43 43 43 43 43 43 42 43 42 41 41 40 42
31 32 32 33 36 35 33 31 30 30 30 30 30 30 30 30 30 33 31 33 34 36 36 37 38 40 41 41 42 43 42 42 43 43 43 41 41 41
29 30 30 32 31 33 34 34 33 29 28 28 29 27 28 29 30 30 29 28 27 34 34 33 36 37 39 39 40 40 41 41 41 41 41 40 39 40
28 28 29 32 32 31 32 32 32 33 31 31 28 29 30 31 31 28 28 28 28 32 33 31 32 33 36 37 39 39 40 40 40 40 40 39 39 38
28 28 28 28 30 31 30 30 30 31 32 32 30 30 32 33 32 32 31 30 31 32 32 28 31 29 32 34 38 39 39 39 39 39 39 38 38 37
28 29 29 29 31 32 30 28 29 30 34 35 35 34 34 34 34 30 28 27 26 29 30 30 30 29 29 33 34 38 39 39 39 38 39 38 38 38
27 30 31 30 31 32 29 28 27 29 31 30 30 32 35 34 34 32 30 27 27 26 29 28 29 29 27 29 30 32 34 37 37 37 38 37 37 38
27 27 28 31 32 32 32 28 27 30 30 30 29 30 30 31 32 32 32 30 28 28 33 31 28 27 27 29 28 28 29 29 31 32 36 36 35 37
26 28 28 30 31 30 28 29 29 28 28 28 28 28 28 29 31 32 33 33 33 32 33 32 29 29 28 27 28 27 27 27 28 29 31 31 34 35
28 29 28 28 28 26 27 28 26 26 25 25 26 28 29 31 32 31 31 32 32 32 33 32 31 29 30 29 28 28 29 27 26 27 27 28 30 31
27 27 25 26 23 23 24 24 24 25 24 25 27 29 30 30 29 30 29 29 28 29 32 33 32 31 29 29 30 30 26 29 27 25 26 26 27 28
26 24 22 21 20 21 22 22 22 23 23 23 25 25 26 27 27 28 30 29 27 28 29 31 32 33 33 32 27 30 29 26 27 26 25 26 26 26
23 20 19 18 17 19 19 19 19 20 21 22 24 25 25 25 26 27 28 28 27 28 28 30 30 30 27 27 31 29 28 28 27 26 25 25 25 27
19 18 17 16 17 18 18 19 17 18 20 20 21 21 22 24 25 24 26 28 28 28 28 27 28 27 24 22 25 28 26 26 26 25 25 24 24 25
18 17 16 16 17 17 16 16 17 17 17 17 18 18 19 23 21 22 23 23 24 25 24 26 26 26 25 24 22 24 28 25 24 23 24 25 26 28
15 15 15 15 15 16 14 14 14 16 15 13 15 15 15 19 22 21 19 18 20 23 21 20 21 23 23 23 20 19 21 28 26 24 23 22 22 24
13 14 14 14 14 14 14 13 14 15 16 15 13 12 12 14 16 18 17 16 18 18 19 21 23 25 22 21 17 17 18 20 24 25 27 26 24 20
12 12 12 12 12 12 13 11 11 13 14 14 13 13 10 11 14 15 14 16 17 18 18 19 19 19 19 19 18 17 17 17 19 20 20 26 28 27

GFSNE_sfc_temp_015.txt.gz
Temp
41 42 41 42 44 45 45 44 41 38 42 48 48 53 54 55 54 55 55 50 47 46 46 47 47 48 48 51 54 54 53 53 54 55 54 55 57 60
45 44 44 44 46 45 44 45 45 43 39 47 49 50 51 53 53 53 54 49 48 45 45 46 47 47 47 46 47 50 53 52 52 52 54 54 54 56
46 46 45 46 46 46 46 46 45 44 40 45 48 50 48 49 51 52 52 52 52 45 44 45 45 45 46 45 44 45 46 49 49 49 50 52 52 53
45 44 44 45 43 44 44 42 43 44 42 39 44 45 45 48 48 48 50 51 50 48 44 44 45 45 45 45 44 43 43 43 45 46 46 47 49 50
42 41 40 40 40 41 41 41 41 42 42 40 40 44 45 45 45 46 46 47 49 47 44 43 44 44 45 45 45 44 43 42 42 42 43 43 43 45
40 39 39 39 39 39 39 39 39 39 39 38 38 39 41 43 43 40 40 43 43 46 46 44 44 45 44 44 44 43 43 43 42 41 42 41 41 42
39 39 39 38 36 37 37 38 38 37 36 34 34 35 35 35 34 39 39 40 41 43 42 44 45 46 47 45 45 44 43 43 42 42 42 41 40 41
36 37 37 36 36 34 34 34 35 34 33 33 33 33 36 37 38 37 37 36 34 43 39 38 43 42 45 47 44 42 42 42 42 41 42 41 40 39
35 35 36 37 36 36 34 33 32 33 32 32 30 33 33 35 35 33 34 35 36 40 39 35 40 39 43 46 40 40 40 40 41 41 40 40 39 38
35 35 35 34 34 32 33 33 34 35 36 36 35 35 37 38 37 36 34 35 37 38 39 30 37 36 40 43 41 40 40 40 40 40 40 39 38 37
34 34 35 34 33 33 32 30 33 35 37 36 35 36 35 35 36 36 31 31 30 34 39 33 35 35 37 38 40 40 39 39 39 39 39 39 38 38
33 34 33 33 31 31 31 30 29 33 34 34 35 37 36 36 33 34 34 30 31 31 38 34 36 37 33 39 39 40 40 38 38 39 39 39 39 41
31 32 33 30 30 31 31 30 29 31 31 32 33 35 35 35 36 38 36 34 32 32 40 38 36 37 35 36 37 39 40 37 37 37 37 38 37 37
29 31 32 29 29 29 29 29 29 28 30 29 29 30 32 33 35 36 38 38 38 36 39 37 35 35 34 34 35 39 39 37 37 37 37 36 34 35
30 29 28 28 28 28 27 27 28 29 28 28 30 31 33 35 35 34 34 35 34 34 35 36 34 35 36 33 33 35 36 37 36 36 36 37 38 39
29 29 27 26 27 28 28 28 28 28 27 28 29 31 34 34 34 35 33 33 31 32 33 33 33 33 33 34 35 33 35 34 36 36 36 36 37 37
27 26 25 24 26 26 27 27 27 28 27 27 29 30 32 33 32 34 33 33 31 32 32 33 33 33 34 33 32 36 36 36 38 37 31 36 37 36
24 22 21 22 23 24 24 24 26 25 26 27 27 28 29 30 31 32 31 32 31 32 33 34 33 32 32 31 31 34 35 35 38 35 33 33 36 38
21 20 19 19 21 23 23 23 23 24 25 25 26 26 27 30 30 30 31 31 31 32 33 34 33 31 30 28 32 29 31 34 34 32 32 32 34 36
19 19 18 19 20 21 21 22 23 24 24 24 24 24 25 26 28 29 30 29 31 32 31 32 32 32 30 30 29 29 29 30 31 31 30 31 30 28
17 18 18 18 18 19 19 20 21 22 22 23 23 23 23 25 26 28 28 26 29 31 29 29 28 26 32 31 27 26 27 29 29 30 29 30 30 32
16 16 17 17 18 18 19 19 21 21 21 23 22 23 23 24 24 25 26 27 28 28 28 29 30 31 30 29 27 24 26 27 27 27 28 27 30 30
15 16 16 16 17 18 18 18 19 20 20 20 22 23 23 23 24 25 26 26 27 27 27 28 29 28 27 27 26 25 23 25 27 28 27 26 28 28

GFSNE_sfc_temp_021.txt.gz
Temp
50 49 49 50 50 50 48 45 40 36 41 48 49 57 57 56 56 59 57 54 49 49 49 50 51 52 52 52 52 53 55 56 57 56 56 57 57 58
46 45 45 47 47 47 47 47 45 41 38 47 50 54 56 58 58 58 57 52 49 47 47 48 49 49 50 50 50 51 51 52 53 54 55 55 56 56
49 47 47 50 50 51 51 51 50 49 44 47 52 53 52 53 55 56 56 56 56 46 46 46 46 47 47 47 47 48 48 49 50 51 52 53 55 56
47 47 47 50 49 49 50 48 48 49 47 44 49 50 51 53 53 53 55 57 56 53 46 46 46 45 45 45 45 45 46 46 46 47 48 49 50 53
47 47 47 47 46 47 47 47 47 48 47 46 45 49 50 51 51 52 52 53 55 52 45 45 45 45 45 45 45 45 45 44 44 44 44 44 45 47
47 47 46 46 45 44 45 44 45 44 44 44 44 45 47 49 50 47 47 51 50 54 51 48 47 46 45 45 44 44 44 44 44 43 42 42 41 42
45 46 46 45 41 41 42 40 40 40 41 42 42 44 45 44 44 46 44 46 47 48 47 49 50 50 49 45 46 45 43 43 43 43 43 42 41 41
42 44 45 44 44 39 38 37 37 36 35 35 36 36 37 40 42 41 40 38 35 46 43 43 46 46 48 50 44 42 44 44 43 43 43 42 42 41
41 42 43 46 42 43 40 37 36 35 33 35 32 34 35 38 38 36 37 38 37 42 42 38 43 40 45 47 43 42 42 42 42 42 41 40 40 40
40 40 40 40 40 37 37 36 37 38 38 38 36 37 40 41 40 40 38 37 39 41 42 33 40 38 41 43 43 42 42 41 41 40 40 40 39 40
36 37 37 36 36 36 34 32 34 36 39 38 38 37 37 37 37 37 33 32 31 36 42 38 37 37 39 40 42 42 41 41 40 40 40 40 40 40
34 35 35 35 34 33 33 32 30 33 35 35 36 38 37 37 35 36 36 32 32 32 40 37 38 38 33 40 41 42 41 40 40 40 40 40 40 42
31 33 35 30 30 31 31 30 30 31 31 33 33 35 36 37 39 40 38 36 33 34 40 39 35 37 37 36 40 41 42 40 40 40 39 39 40 40
30 33 33 31 31 30 29 30 29 29 30 30 31 33 34 35 38 40 40 40 40 37 40 37 34 36 36 34 35 40 41 40 40 38 39 40 39 39
31 30 30 29 29 29 30 30 29 30 31 30 31 32 34 37 38 39 40 40 38 36 36 37 35 35 36 34 35 37 36 38 37 37 38 38 38 39
29 29 30 29 29 30 30 31 32 31 30 30 31 33 35 35 35 37 36 37 34 36 37 36 36 36 33 36 36 35 37 35 38 37 36 35 36 38
26 29 28 27 26 28 29 30 31 31 29 30 30 31 32 33 33 36 36 36 33 34 35 36 35 35 35 35 32 35 36 36 39 38 36 37 36 37
27 25 24 24 24 25 26 27 29 28 29 29 29 29 30 30 31 34 35 33 33 35 35 37 34 32 32 33 34 34 36 35 38 38 36 36 36 40
24 24 23 22 23 25 26 25 25 27 29 28 29 28 29 29 30 31 33 33 33 34 35 35 34 33 30 28 31 30 32 34 34 35 36 35 34 36
24 22 22 23 24 25 25 25 26 27 27 27 28 27 28 29 29 29 30 31 32 33 33 34 33 31 29 29 30 28 30 29 31 32 33 35 33 30
22 22 23 24 24 24 24 25 26 26 26 26 27 27 28 29 28 29 28 30 31 32 30 30 31 31 34 35 30 29 29 30 30 29 31 33 32 32
23 23 24 24 23 23 24 24 25 26 26 25 25 27 28 29 27 28 29 28 29 30 30 32 34 34 33 31 30 28 29 31 30 29 29 28 28 26
21 23 23 22 23 23 23 22 23 24 24 25 25 26 27 27 28 29 29 29 29 29 30 30 32 33 31 31 29 30 27 29 31 30 29 29 29 29

GFSNE_sfc_temp_024.txt.gz
Temp
44 44 43 44 44 44 43 41 36 30 33 41 41 48 48 48 49 49 49 51 48 48 49 50 51 51 51 52 52 53 54 55 57 58 57 57 58 58
43 42 42 43 43 42 43 42 42 38 33 40 43 46 49 53 52 51 51 52 48 47 47 47 48 49 50 50 50 51 51 52 53 54 55 56 56 57
43 44 43 45 44 45 45 45 41 39 35 39 43 46 46 46 49 49 50 48 47 46 45 46 46 47 47 47 48 48 48 49 50 50 51 53 55 56
42 43 43 47 43 43 42 41 40 40 38 36 39 40 41 44 45 44 50 53 47 50 46 46 46 46 46 45 45 45 45 45 46 47 48 49 50 52
41 40 41 42 40 40 40 40 39 43 38 37 36 38 39 40 42 42 43 43 49 50 47 44 44 45 45 45 45 45 44 44 43 44 44 45 46 47
39 39 40 40 38 38 38 35 38 35 35 34 35 36 38 40 41 39 38 40 40 50 49 46 44 45 45 45 44 44 44 44 43 43 42 42 41 44
36 39 40 41 43 39 39 34 33 32 31 31 32 33 34 34 34 37 35 34 35 39 38 38 39 40 42 44 44 44 44 44 43 43 43 42 41 42
33 35 38 40 41 40 39 38 36 32 30 30 29 28 30 32 32 31 29 28 27 35 33 31 36 36 39 40 43 43 43 42 42 42 43 42 41 41
33 34 35 40 37 37 35 36 34 36 33 31 28 29 29 31 32 31 29 29 31 33 33 31 28 31 35 43 42 42 42 42 42 41 41 41 40 40
32 32 32 32 33 34 33 31 32 33 35 36 32 31 33 34 34 34 32 31 31 32 33 29 27 32 30 33 41 42 42 42 41 41 40 40 39 39
31 31 32 31 34 35 32 30 30 31 37 38 36 37 37 37 36 33 29 28 26 29 32 32 29 30 31 33 33 41 42 41 41 40 40 40 39 39
29 31 33 33 30 31 29 28 27 28 30 30 31 32 34 35 35 33 30 27 27 26 32 31 32 29 26 31 34 34 31 39 40 40 40 40 40 36
27 28 30 32 31 31 31 27 27 29 28 28 29 30 31 33 34 35 34 32 29 28 34 34 30 27 27 27 27 30 33 34 34 34 39 40 40 39
25 27 28 31 31 30 30 30 30 29 27 26 27 28 29 31 33 34 35 34 35 33 34 33 31 30 26 27 28 29 32 32 30 29 29 36 38 39
26 27 28 29 30 29 30 30 29 27 27 27 27 28 29 31 33 32 33 33 34 34 36 34 32 33 31 28 27 26 27 30 34 34 28 28 30 32
26 25 26 28 27 27 28 29 29 28 27 27 27 28 31 31 29 30 31 30 26 29 32 35 33 33 31 28 27 25 27 27 31 34 28 34 34 34
24 25 25 24 24 25 25 26 27 27 26 26 26 27 28 28 29 30 31 26 23 25 27 29 31 31 30 31 27 27 27 28 29 31 33 30 32 34
24 22 21 21 21 23 23 23 24 24 25 26 26 26 26 26 27 29 31 30 24 25 28 30 31 29 29 28 33 28 26 27 29 33 33 31 28 29
21 21 20 20 21 23 22 23 22 24 26 25 25 25 26 26 27 27 27 28 27 28 30 29 30 30 26 23 26 31 29 29 29 26 29 32 31 29
21 20 19 20 21 21 21 21 22 24 23 23 24 24 24 25 26 25 26 26 26 28 25 25 22 24 25 23 25 23 30 27 27 27 27 31 28 30
20 20 20 20 20 20 20 20 21 22 22 21 22 23 24 25 24 23 25 25 26 27 24 23 24 26 26 26 27 24 24 31 27 24 25 26 27 27
16 19 20 20 19 19 19 19 19 20 20 20 20 21 23 24 24 25 25 24 25 25 26 25 30 30 27 27 26 15 20 20 27 29 29 28 24 23
13 17 18 18 19 18 19 18 18 17 17 17 18 19 21 22 23 25 22 25 24 20 21 24 26 27 27 26 23 22 18 20 22 25 21 29 29 29

GFSNE_sfc_temp_027.txt.gz
Temp
39 40 41 41 42 42 40 39 36 30 29 34 36 43 43 43 45 46 46 46 45 46 47 48 51 52 52 52 52 53 53 54 54 55 57 57 58 58
40 39 41 42 41 41 41 40 39 35 31 35 39 42 43 48 48 46 47 47 47 46 46 47 48 50 50 50 51 51 52 52 52 53 54 55 56 57
38 38 38 40 41 42 42 41 40 40 34 37 38 40 40 40 44 46 47 46 46 47 47 46 46 47 47 47 48 49 49 50 50 50 51 51 53 54
36 35 36 41 37 37 37 37 38 38 34 30 33 35 36 38 39 40 46 50 46 47 46 46 46 45 45 45 45 46 46 46 47 47 48 49 50 51
35 34 35 35 34 35 36 36 34 39 33 30 29 33 34 36 38 39 39 39 46 48 46 44 44 45 45 45 45 45 44 44 43 44 44 45 46 48
34 34 34 34 34 33 35 34 35 31 30 29 29 29 30 34 34 32 32 34 35 44 44 42 43 44 44 44 44 44 44 44 43 43 42 41 41 43
32 34 34 36 39 38 37 33 31 29 28 27 27 27 27 27 29 32 30 30 32 34 34 35 36 37 38 42 43 44 44 44 43 43 42 41 41 41
29 31 32 35 35 36 36 36 35 30 27 26 26 25 27 26 28 27 26 26 26 32 30 29 33 33 36 37 42 42 43 43 43 43 42 41 41 40
27 28 30 35 32 31 33 34 34 36 32 31 28 27 27 28 29 27 26 25 26 30 29 28 25 28 32 39 42 42 42 42 42 42 41 41 40 39
28 28 28 29 30 31 30 29 29 30 31 32 29 30 30 32 32 31 30 31 31 29 29 26 24 27 27 30 39 41 42 41 41 41 41 40 40 39
29 30 30 29 31 34 29 27 27 29 34 36 36 36 36 36 35 32 29 28 27 28 28 29 28 24 24 28 30 39 40 41 41 41 40 40 40 39
27 29 30 30 30 30 29 25 24 26 27 27 28 30 32 32 34 32 30 27 27 25 30 28 28 24 21 25 31 33 29 38 39 40 40 41 40 37
25 25 27 30 30 31 31 27 26 28 28 27 27 28 29 30 31 32 32 30 28 28 32 31 25 25 26 26 23 25 27 31 32 34 39 40 40 39
23 25 26 28 30 30 29 30 30 29 27 26 26 26 27 29 31 33 33 32 32 32 34 32 30 30 29 26 25 27 25 28 27 26 28 34 37 38
25 26 27 29 29 28 29 29 28 28 27 25 26 26 27 30 31 31 32 31 32 32 34 34 32 32 31 29 25 25 25 25 26 29 33 33 28 25
25 25 26 26 26 25 26 26 26 26 25 24 25 26 27 27 27 29 26 27 23 25 30 32 34 33 30 30 30 29 28 27 26 32 30 23 26 30
24 23 22 22 22 23 23 24 24 25 24 24 24 25 26 27 27 27 27 30 25 22 24 27 33 33 32 30 28 29 29 26 26 25 31 32 34 34
22 20 18 19 20 21 21 21 23 23 24 24 24 24 24 24 25 27 26 24 25 27 29 31 31 30 30 29 32 29 26 25 25 28 32 30 31 29
19 18 17 18 18 20 20 20 20 22 23 22 22 22 23 25 25 24 24 25 25 27 25 23 24 23 25 23 25 31 28 28 25 22 23 24 29 30
17 18 17 18 18 18 18 18 19 20 20 19 19 20 21 23 23 23 24 22 24 24 23 21 19 21 21 20 20 17 31 22 21 21 23 26 26 30
12 16 17 17 17 17 15 16 16 16 16 16 16 18 18 22 21 23 22 21 19 23 23 23 23 25 26 22 21 16 17 30 23 18 20 20 25 27
6 11 16 17 15 16 13 13 15 14 13 14 13 14 17 20 20 21 21 21 18 15 19 21 26 29 25 25 21 14 15 13 24 29 29 26 21 22
3 7 8 11 14 15 16 14 11 9 11 11 11 12 13 16 17 19 19 18 20 17 18 21 24 23 23 22 20 17 13 15 18 21 16 28 29 29

GFSNE_sfc_temp_030.txt.gz
Temp
38 38 38 40 41 40 40 38 33 31 32 36 34 40 41 40 43 43 42 47 46 46 45 45 48 49 52 53 53 53 53 54 54 54 54 55 57 58
39 37 36 37 36 36 38 39 38 34 31 33 36 37 40 45 45 42 42 47 45 45 45 45 45 47 49 51 51 51 52 52 52 52 53 53 54 56
35 34 34 35 34 34 34 36 37 38 34 33 36 36 37 37 40 41 43 43 42 45 44 45 45 45 46 47 48 49 50 50 51 51 51 51 52 52
34 33 34 38 32 32 32 32 33 35 32 29 31 32 33 36 36 35 41 46 41 46 45 45 45 46 46 45 45 46 46 47 47 48 49 50 50 50
33 33 32 32 30 30 31 31 32 36 31 29 29 30 31 33 33 34 36 35 41 45 44 43 43 45 45 44 45 45 44 44 44 44 45 45 47 48
32 31 31 30 29 29 31 30 31 29 29 28 27 28 29 31 30 29 29 31 32 40 41 41 42 45 45 44 43 44 44 44 43 42 42 41 41 43
31 31 31 32 36 35 33 30 29 29 28 28 27 26 26 26 25 27 26 27 28 31 32 33 34 35 38 40 43 44 43 43 43 43 42 41 40 41
28 29 29 32 32 34 34 34 33 30 28 27 27 26 26 25 26 25 24 23 23 30 29 28 32 33 34 35 41 41 42 42 42 43 42 41 41 40
27 27 29 33 31 30 31 32 32 33 31 30 27 27 27 26 27 24 24 23 24 29 27 25 24 27 31 38 40 41 42 42 42 42 41 41 40 39
27 27 27 27 28 29 29 29 29 29 30 30 29 28 29 30 28 30 28 26 28 29 28 26 25 25 27 29 37 40 41 41 41 41 41 40 40 39
28 28 28 27 30 31 28 27 27 28 32 34 35 34 33 33 34 31 28 27 25 28 27 26 26 25 25 26 29 38 39 40 40 40 40 40 40 39
25 27 29 29 29 30 27 25 25 27 26 26 27 28 30 30 32 30 28 24 25 24 29 26 27 23 19 23 29 30 29 36 38 39 40 40 40 36
23 24 26 28 29 30 30 27 27 28 28 28 27 27 27 28 29 30 31 29 27 26 30 29 23 23 25 22 22 24 25 25 27 30 38 39 40 38
22 25 25 29 29 29 28 29 29 28 27 26 26 26 27 28 30 31 32 32 32 31 32 32 28 26 24 24 26 26 24 25 23 25 27 33 36 38
24 26 28 28 27 27 27 27 26 25 24 23 24 25 27 28 30 30 31 31 31 33 33 33 31 31 31 28 26 25 26 25 30 28 26 28 28 24
23 24 24 25 24 25 25 25 25 25 24 23 24 25 26 26 27 28 27 30 28 26 28 31 32 33 30 30 30 28 25 27 27 31 31 28 23 26
16 19 20 20 20 22 22 23 23 24 23 23 23 23 25 26 26 26 26 26 24 25 26 31 30 33 32 31 27 28 26 25 25 27 30 31 27 32
16 12 16 16 17 18 18 19 20 21 21 22 21 22 22 23 25 25 23 20 25 25 23 22 28 30 30 29 31 29 28 27 25 30 31 29 31 31
10 10 12 16 16 17 17 17 17 19 20 19 19 19 20 22 23 22 23 23 24 25 21 19 19 17 21 16 21 30 25 24 24 19 21 25 24 25
11 8 13 15 16 17 16 15 16 15 15 15 16 16 17 20 20 22 22 19 22 23 23 20 18 20 21 18 19 15 29 16 19 16 17 18 23 30
9 10 7 14 14 15 12 10 7 10 11 10 12 13 14 17 18 19 19 18 15 20 19 18 20 23 23 20 16 14 14 28 23 21 19 22 19 23
4 8 8 9 8 11 10 9 8 6 9 10 9 9 10 14 16 16 17 14 17 13 16 20 24 26 22 25 18 14 13 12 22 29 29 27 19 18
1 5 3 1 5 8 13 9 9 5 8 8 9 9 9 10 14 13 11 12 14 13 16 19 21 21 24 22 20 18 11 11 17 16 15 27 29 29

GFSNE_sfc_temp_033.txt.gz
Temp
36 35 35 36 36 36 35 34 33 29 30 32 33 41 41 38 41 39 40 44 46 46 46 45 46 47 48 49 53 54 54 54 54 54 54 55 56 57
36 34 33 33 33 32 32 33 32 32 29 35 33 36 39 43 43 38 39 45 44 44 44 45 45 45 45 46 47 51 52 53 53 53 53 53 54 55
33 32 32 33 32 32 31 31 30 30 28 32 33 36 35 36 38 38 39 38 39 44 44 44 44 44 44 44 45 46 50 51 51 52 52 52 53 53
32 31 32 36 30 29 28 28 29 29 29 28 30 30 32 35 34 34 39 43 36 43 43 43 44 44 44 44 44 45 46 47 48 49 50 51 51 51
31 30 30 30 28 28 28 28 29 32 29 28 28 29 29 30 31 32 33 33 39 42 42 42 42 43 44 44 45 45 45 44 44 44 46 46 48 49
31 30 30 29 28 27 29 28 30 28 29 28 27 28 28 30 29 28 27 29 30 37 38 39 40 42 42 43 43 44 44 44 43 42 42 41 42 44
30 31 30 32 35 33 31 28 27 28 27 27 26 27 26 25 25 27 26 25 26 29 29 30 32 33 35 38 41 42 43 43 43 42 42 41 40 42
28 29 29 32 30 33 33 33 32 27 26 26 25 25 25 25 25 25 24 23 22 28 27 26 29 30 32 33 39 41 42 42 42 42 42 41 41 40
26 27 28 31 30 29 30 31 31 32 30 28 26 27 26 26 27 24 23 23 23 27 26 24 23 26 30 35 39 40 41 41 42 42 42 41 40 39
26 26 26 26 27 29 28 27 28 30 31 30 28 28 28 29 28 29 27 27 27 28 27 25 25 23 27 28 36 39 40 40 41 41 41 40 39 39
27 27 27 26 29 30 27 26 26 28 33 33 33 33 33 33 33 30 27 27 25 28 25 24 25 22 22 26 29 37 39 39 39 40 40 40 40 39
24 26 27 28 29 30 27 26 24 27 27 28 28 28 30 29 31 28 25 24 23 19 27 25 26 23 19 21 26 27 29 37 38 39 39 40 40 35
23 23 26 28 30 29 29 26 26 27 27 28 28 28 28 28 28 28 29 27 25 25 30 29 24 24 25 21 21 22 24 24 25 28 37 39 39 38
23 24 25 29 28 28 27 28 28 26 25 25 25 26 26 27 29 30 31 31 31 30 32 31 26 25 25 21 21 23 23 21 22 22 24 31 36 38
23 26 27 27 27 26 26 26 25 24 24 22 23 24 26 27 29 29 30 30 30 31 33 32 31 30 29 28 26 23 25 26 28 27 29 28 25 26
20 19 20 24 23 23 23 23 23 23 23 22 22 24 26 26 26 28 27 28 28 23 27 32 32 31 30 30 30 27 27 27 25 28 31 30 29 29
12 11 14 17 18 19 19 21 21 21 20 20 21 21 22 24 25 27 26 26 23 27 27 29 31 31 32 30 28 28 26 25 23 22 27 25 25 24
13 7 3 5 11 16 15 16 18 17 17 18 18 19 19 20 23 24 25 22 24 25 23 22 22 29 29 29 31 27 28 28 28 25 29 28 25 27
7 5 1 3 5 15 15 15 14 15 16 15 15 16 17 19 20 22 22 23 23 21 20 18 17 16 23 20 22 29 26 27 24 27 25 26 24 21
9 5 3 5 7 14 14 13 13 11 11 11 12 12 13 16 17 19 20 17 17 20 20 19 17 18 19 16 20 15 28 16 21 21 17 18 20 28
8 8 3 6 6 8 4 4 3 7 7 6 8 9 9 13 15 16 16 14 14 18 16 16 17 21 21 16 13 12 15 27 22 22 22 22 23 23
3 7 7 6 2 2 -1 -1 3 3 7 7 6 6 6 9 12 12 14 12 13 12 15 19 22 24 19 22 15 12 18 11 21 28 28 27 17 16
3 5 2 -1 0 -0 5 -1 0 -2 4 7 7 7 5 6 11 10 10 12 13 12 14 16 19 19 21 20 16 18 13 11 18 18 14 26 29 29

GFSNE_sfc_temp_036.txt.gz
Temp
36 36 34 35 34 34 34 34 32 25 28 33 34 39 41 42 42 40 39 45 45 45 45 46 47 47 47 48 48 50 54 55 55 55 56 57 58 59
36 34 33 33 32 32 32 32 32 30 26 33 35 36 39 43 43 41 40 44 43 43 44 45 45 47 46 45 46 47 47 52 54 54 54 55 56 57
34 33 33 32 31 31 31 30 30 30 27 31 34 36 36 36 39 39 41 40 40 41 43 43 44 44 45 45 44 45 46 47 49 52 53 54 55 55
32 32 31 35 30 30 29 28 29 29 28 27 31 32 33 35 36 35 39 43 38 41 42 42 42 43 43 44 44 44 44 45 45 47 50 52 53 54
31 30 30 30 29 28 28 28 28 31 31 29 30 31 32 33 33 34 34 35 38 41 40 41 41 42 43 43 44 44 44 44 44 44 45 46 49 50
31 31 30 30 29 28 29 28 30 28 28 28 28 29 30 32 31 31 31 33 33 37 38 38 39 40 42 42 43 44 44 44 43 43 43 42 43 45
30 31 31 32 35 34 32 30 28 27 27 27 27 27 28 28 28 30 30 30 31 32 33 34 35 36 37 38 40 41 43 43 43 43 42 42 42 43
30 30 29 31 30 32 32 32 31 27 26 26 27 26 27 28 29 28 27 26 26 32 30 30 33 34 35 36 38 40 41 42 42 43 42 41 41 41
26 26 27 30 29 28 29 30 30 31 30 28 26 27 27 29 29 28 26 26 27 30 29 27 30 30 34 36 37 39 40 40 41 41 41 41 40 39
26 26 26 26 27 28 28 27 28 30 30 30 30 29 30 31 30 30 29 28 28 29 30 26 29 29 32 33 36 38 39 39 40 40 41 40 39 39
27 27 27 26 28 31 28 27 27 29 33 34 32 33 33 33 33 30 27 26 25 28 28 28 29 28 28 31 32 36 38 39 39 39 40 40 40 39
25 27 27 28 30 30 27 25 24 27 27 28 30 30 31 30 31 30 28 25 26 24 29 27 28 27 25 28 29 31 32 36 38 39 39 40 40 41
23 24 25 28 29 29 28 25 25 27 26 26 27 28 29 29 30 29 28 26 25 25 31 30 27 27 28 27 29 30 30 30 33 36 38 39 39 40
22 23 23 28 28 28 27 27 27 25 25 24 24 25 26 27 29 30 31 30 30 29 32 30 29 28 27 26 26 31 30 29 30 32 33 34 37 38
22 24 26 26 25 24 25 26 24 23 22 21 22 23 25 27 28 29 31 31 31 32 32 32 31 30 30 28 28 28 30 32 28 29 30 29 32 31
19 18 17 21 18 19 20 22 21 21 20 19 20 22 24 25 26 28 28 29 29 29 30 32 32 31 30 30 31 29 29 30 30 29 31 30 30 32
11 10 12 13 15 17 17 18 19 19 17 17 19 19 21 22 24 27 27 27 26 27 28 29 31 32 32 32 29 31 30 30 31 30 31 30 31 32
13 5 0 -0 5 13 13 14 16 15 15 16 16 17 17 19 21 24 25 25 24 26 25 25 26 30 31 30 31 30 30 30 30 30 29 28 30 33
8 5 -2 -3 2 12 13 12 12 13 14 13 14 13 15 18 19 20 21 22 22 24 25 25 24 24 25 23 26 29 27 29 27 29 29 31 30 31
10 6 2 2 7 10 12 11 10 9 10 10 10 10 10 14 16 17 18 16 18 21 22 23 23 23 23 22 24 26 27 24 24 23 24 25 26 28
9 10 5 7 8 8 1 0 -3 2 5 6 8 8 7 10 13 15 16 13 13 18 18 19 22 22 24 24 21 22 25 26 25 24 24 24 25 26
7 9 10 8 5 5 -1 -5 -0 -0 2 7 8 7 7 8 10 11 11 13 15 16 16 19 23 24 25 24 22 19 23 21 23 27 28 27 24 23
7 8 7 3 3 2 7 2 1 -4 1 3 6 8 8 8 10 10 10 12 14 14 15 16 19 22 22 22 21 22 20 21 21 23 24 26 29 29

GFSNE_sfc_temp_042.txt.gz
Temp
49 49 50 51 52 51 50 48 40 36 40 47 47 53 54 54 53 52 52 49 47 45 45 45 46 47 48 49 48 48 49 50 50 49 54 61 61 63
51 50 51 51 51 49 50 48 45 41 37 46 48 50 51 52 51 51 51 48 47 45 44 44 44 45 46 47 47 46 47 47 48 48 49 52 56 60
49 48 48 49 47 49 49 48 46 45 40 44 48 49 48 47 48 47 49 51 52 46 44 43 43 43 43 43 44 46 46 45 45 46 47 48 50 55
48 47 47 47 47 48 47 45 44 45 41 38 43 43 43 45 45 44 46 49 50 48 43 42 42 42 42 42 42 44 44 44 44 44 45 47 48 49
47 46 45 46 45 45 45 44 44 43 40 37 37 40 42 44 43 44 43 45 49 46 44 42 42 42 42 42 42 43 43 43 42 43 43 43 45 46
46 46 45 44 42 42 41 41 41 39 37 35 35 36 39 41 40 38 38 42 43 48 46 44 42 44 43 42 42 42 43 43 42 42 42 42 42 44
45 44 44 40 36 36 37 38 36 35 34 33 33 35 37 37 37 40 39 40 41 42 44 46 46 49 49 41 44 43 41 43 43 42 42 42 41 42
42 42 43 39 39 34 34 33 34 33 31 31 33 31 34 35 37 37 36 35 34 44 41 41 45 44 48 50 41 40 40 41 42 43 42 42 42 42
41 41 40 41 38 37 35 33 34 33 31 33 31 32 33 36 36 36 36 36 35 40 40 36 42 40 44 49 42 40 39 40 40 41 42 41 40 40
40 39 39 38 37 33 33 33 34 35 37 36 34 34 35 37 36 35 35 36 38 40 41 32 38 38 41 43 41 40 39 39 39 40 40 41 40 39
39 39 37 36 33 31 30 30 31 33 36 35 34 34 34 34 35 35 33 32 31 35 39 36 37 36 40 40 44 39 39 39 39 39 40 40 40 39
38 38 34 32 29 30 29 28 27 31 31 33 34 35 36 38 33 35 35 31 32 31 40 36 38 39 35 42 41 43 43 37 37 38 39 40 40 47
35 36 36 30 29 29 28 29 27 29 29 32 32 33 35 35 38 38 37 33 32 34 40 40 38 38 36 38 40 42 42 41 42 41 38 39 40 42
32 35 33 28 28 27 28 26 27 27 30 30 29 30 30 31 33 35 36 36 38 36 39 38 35 35 35 35 36 41 41 42 42 40 43 41 38 39
33 31 28 27 28 29 28 26 27 29 28 27 27 28 29 32 33 34 35 36 38 38 38 36 35 36 35 35 35 37 39 39 41 38 40 40 42 43
33 33 30 26 28 28 31 31 30 29 26 27 26 29 31 31 32 34 32 33 33 34 35 35 35 34 34 36 37 36 39 36 38 38 37 39 41 44
28 30 31 30 30 31 31 30 30 29 28 27 26 27 29 29 30 33 32 33 31 32 33 35 35 36 36 34 33 38 37 39 40 38 37 35 37 39
29 30 29 28 27 29 28 28 29 28 27 27 27 27 26 27 27 30 31 30 30 31 32 34 35 34 34 33 32 35 40 38 40 39 38 34 36 39
28 31 29 28 28 29 29 29 27 27 26 27 26 26 26 26 27 27 27 28 29 30 32 34 33 32 32 29 34 30 34 37 35 35 36 36 36 39
29 30 29 29 29 29 29 29 28 27 26 26 25 25 25 25 26 27 27 25 27 30 31 34 33 31 28 28 29 31 30 32 33 33 35 36 36 30
31 32 31 31 30 30 28 27 25 25 23 23 25 24 25 25 25 26 26 25 26 29 28 29 31 30 33 33 28 31 31 29 30 30 33 34 33 34
31 31 32 32 31 30 28 27 26 26 26 25 24 24 25 25 25 24 25 24 26 27 28 30 32 32 32 31 30 29 32 32 29 29 29 28 30 30
31 31 31 31 30 29 29 27 26 25 26 25 24 24 24 23 25 25 25 25 26 25 27 27 30 33 32 31 30 31 29 30 32 30 30 28 28 29

GFSNE_sfc_temp_045.txt.gz
Temp
51 51 50 51 52 50 49 47 42 36 40 46 47 53 54 54 54 53 52 50 48 47 47 47 47 47 48 48 48 49 49 50 50 50 51 53 55 59
52 50 49 50 50 49 48 49 48 44 38 46 49 51 52 52 52 51 50 47 47 46 46 46 46 45 45 46 46 46 48 49 48 49 49 50 51 53
50 49 48 49 47 47 49 49 48 47 41 45 48 50 47 47 48 49 49 49 49 47 46 47 44 43 43 43 44 44 45 47 47 47 47 48 49 50
48 47 47 49 47 48 48 47 47 47 44 40 44 44 43 44 45 44 47 49 48 47 46 44 43 43 43 42 42 43 43 43 45 45 45 45 46 47
47 46 46 47 46 46 45 44 44 44 43 41 39 41 42 43 42 44 44 44 47 46 45 43 43 44 43 42 42 42 42 42 42 43 43 43 43 44
47 47 47 45 44 41 40 40 41 40 40 38 37 37 39 41 41 39 39 42 42 47 45 44 43 44 42 42 42 42 42 43 42 42 41 41 41 43
47 47 46 42 39 38 38 37 37 35 35 34 33 34 35 36 35 38 36 38 40 42 43 44 45 44 45 44 44 43 43 42 42 42 42 41 41 42
44 44 45 43 42 37 36 35 34 33 31 31 31 31 33 36 36 35 35 34 32 42 39 38 42 42 45 48 40 41 41 41 41 42 42 42 42 41
43 42 42 44 40 40 37 35 35 35 33 33 30 32 31 33 35 32 34 33 32 38 38 35 40 38 43 45 42 41 40 40 40 41 41 41 41 40
42 42 41 40 38 33 34 33 34 36 36 37 34 35 35 36 35 35 35 35 36 39 41 32 39 37 41 43 43 42 40 40 40 40 40 41 40 39
41 41 40 39 32 31 31 29 31 33 37 36 35 35 35 35 35 34 31 32 30 34 38 34 36 36 39 39 42 41 40 39 39 39 39 40 40 40
40 40 34 33 30 30 28 28 27 32 32 33 34 36 36 37 35 35 34 29 30 30 38 34 35 36 33 40 41 42 41 38 38 38 39 40 40 43
35 37 38 31 29 29 29 29 27 29 29 31 33 34 34 35 36 37 37 34 32 31 37 37 36 36 37 35 37 41 41 41 40 39 38 39 39 41
33 36 36 31 29 29 29 29 28 28 31 30 30 30 31 31 34 35 36 36 37 36 39 37 34 35 34 33 34 40 41 41 41 41 41 40 38 39
34 34 31 31 30 31 31 29 28 31 29 28 28 29 31 32 34 34 36 37 35 36 40 38 36 36 35 32 32 34 37 40 41 40 41 41 40 40
33 34 32 30 30 29 31 34 33 32 29 29 29 29 32 32 31 33 32 34 32 34 34 35 35 36 34 35 36 36 38 36 39 39 39 39 41 42
30 32 33 34 32 33 33 33 33 32 30 29 29 29 30 30 30 32 32 32 31 31 32 34 35 35 35 34 32 36 35 38 38 37 36 36 38 40
30 30 31 31 30 31 31 31 32 31 30 29 29 29 28 27 28 30 31 30 29 31 32 34 35 32 34 32 32 35 34 34 36 36 38 35 36 40
27 30 31 31 30 31 32 32 30 31 28 29 28 28 28 27 27 28 29 28 28 30 32 34 34 32 28 28 33 32 33 36 36 36 37 36 36 33
31 31 31 31 31 32 32 32 31 30 29 28 27 27 27 27 26 27 27 26 27 28 30 33 32 31 27 25 27 31 31 33 33 33 34 37 34 31
32 31 32 33 32 32 32 30 29 27 27 25 27 27 26 27 26 26 27 26 26 29 27 29 31 31 33 32 28 30 30 31 31 31 33 33 33 34
32 32 33 33 33 32 31 29 28 27 27 28 27 26 27 26 26 26 26 25 26 26 28 31 32 32 31 30 29 30 31 31 30 30 30 29 29 28
33 33 33 32 32 31 31 30 29 28 28 27 26 27 25 24 27 27 27 27 26 25 26 27 30 32 31 32 30 30 29 30 32 31 30 29 29 30

GFSNE_sfc_temp_048.txt.gz
Temp
43 43 42 42 43 45 42 39 33 30 33 38 38 43 43 44 46 45 43 47 47 46 46 47 48 49 49 49 49 49 49 49 50 51 51 52 52 54
44 44 42 42 43 41 40 40 39 36 33 38 40 40 42 47 46 43 43 47 46 45 45 46 46 47 48 47 47 47 47 47 48 49 50 50 51 52
43 42 43 43 40 40 40 40 40 37 34 37 40 40 38 37 40 40 42 42 42 45 45 45 45 45 45 44 44 45 45 45 46 47 48 49 49 50
43 42 41 46 39 39 38 36 36 36 34 31 36 37 35 36 36 36 42 45 42 45 44 44 44 43 43 43 43 43 43 43 43 44 45 46 47 47
41 40 41 40 38 35 34 34 34 37 34 32 32 34 33 35 34 36 37 37 43 45 44 44 44 44 44 43 43 43 42 42 42 42 43 43 44 44
41 42 41 38 34 33 34 30 33 31 31 30 30 31 32 34 34 32 32 33 35 42 43 42 43 43 43 42 42 43 42 42 42 42 41 41 41 42
41 42 40 39 41 35 34 30 29 28 28 28 27 29 29 29 29 31 29 30 33 34 34 35 38 37 39 42 43 43 43 42 41 41 42 41 41 42
36 37 38 40 38 36 37 35 33 27 27 26 26 26 27 29 29 29 27 27 26 33 32 31 34 35 38 40 39 41 42 41 41 41 41 41 41 41
35 35 37 42 34 32 33 34 33 34 31 29 26 27 27 29 28 27 26 26 26 31 32 29 31 31 36 43 38 37 40 40 40 40 40 40 40 39
35 35 33 33 28 29 28 27 29 30 31 33 29 27 29 30 29 30 28 28 29 31 33 26 27 28 31 33 41 41 41 40 40 40 39 39 40 39
35 35 35 32 31 32 27 25 26 28 35 34 34 34 35 36 35 31 26 26 24 28 32 29 27 29 31 30 32 40 41 40 40 39 39 39 39 40
32 33 32 30 30 30 22 22 21 25 26 26 28 31 33 33 34 32 29 26 27 23 31 29 29 30 26 29 29 31 31 38 39 39 39 39 39 35
29 29 29 31 31 30 29 24 23 26 26 25 27 28 29 30 30 31 30 26 26 25 32 30 29 29 27 29 31 34 29 29 29 32 38 38 39 38
28 29 29 32 32 31 29 30 30 27 23 21 24 24 25 27 29 30 32 33 33 32 33 32 29 28 27 27 29 33 33 28 28 28 29 34 38 38
28 31 32 32 32 30 32 31 26 23 20 17 22 21 23 28 30 30 30 31 32 33 35 32 28 29 26 28 28 31 31 31 31 27 27 28 28 27
29 30 27 27 24 25 24 27 25 23 21 19 18 24 24 24 26 29 27 28 28 31 33 32 32 31 29 27 29 28 30 29 30 27 27 27 28 30
25 24 24 26 25 24 24 25 24 24 22 19 18 21 24 24 24 27 28 26 25 27 29 31 33 33 32 29 28 29 29 31 27 27 28 26 27 28
24 21 21 23 25 23 21 21 22 22 22 21 19 20 22 20 23 25 28 25 23 24 26 29 30 30 31 29 32 27 31 31 32 30 28 26 27 28
23 21 23 25 25 26 22 22 20 20 22 20 19 18 19 23 21 22 23 24 23 22 25 27 28 26 24 22 28 32 29 29 27 26 28 27 29 30
26 24 25 27 25 24 24 22 21 19 19 19 15 16 14 17 19 20 21 17 21 24 24 25 25 24 22 20 22 26 32 25 26 26 28 27 27 30
28 26 27 27 29 26 26 23 18 17 16 13 14 15 13 17 15 18 17 17 20 24 22 24 23 26 26 25 22 25 25 31 29 26 26 24 27 26
28 29 29 29 29 28 26 22 19 17 16 16 17 13 13 14 14 14 13 12 17 18 22 23 27 29 27 28 25 26 23 20 27 30 30 27 23 21
30 30 29 29 28 28 26 23 24 21 20 17 15 15 12 11 15 15 16 16 18 16 19 20 24 27 27 27 24 25 24 19 23 21 18 29 30 30

GFSNE_sfc_temp_054.txt.gz
Temp
37 38 37 41 41 40 40 39 35 29 27 30 31 35 35 37 39 37 36 42 44 44 44 45 45 46 47 47 48 48 49 49 50 51 51 51 51 51
39 38 37 38 38 39 37 38 36 32 25 30 30 31 34 39 40 36 35 43 42 42 43 43 44 45 45 46 46 46 47 48 49 49 49 49 49 50
38 38 38 39 37 37 35 34 31 30 26 27 29 30 29 29 32 33 35 34 35 41 42 42 42 43 43 44 44 45 45 45 46 47 47 48 48 49
38 38 38 42 36 33 30 30 29 28 26 24 26 26 27 29 29 29 34 38 34 39 41 40 41 42 42 42 42 43 43 43 44 44 45 45 46 47
38 36 37 36 33 31 30 29 28 32 27 25 25 26 26 27 29 30 30 30 36 39 38 39 40 40 41 41 42 42 42 42 42 42 42 42 43 43
37 36 36 34 32 31 30 28 28 26 26 24 25 26 25 28 27 26 27 30 29 35 35 36 37 38 39 39 40 41 42 42 40 41 40 40 40 41
35 36 36 36 40 34 31 27 26 25 24 24 23 24 25 24 24 26 25 26 27 29 28 29 31 31 32 36 38 40 40 40 40 39 40 40 39 40
31 32 32 36 36 36 36 34 30 25 23 20 21 21 23 24 25 24 23 22 22 27 25 26 29 29 31 32 36 38 40 40 40 37 40 40 40 39
30 30 32 35 33 31 32 32 30 31 27 23 20 21 21 24 25 23 24 24 23 27 26 25 26 26 30 35 37 38 39 40 40 39 40 39 39 38
30 31 30 29 29 29 27 26 27 26 27 29 24 23 24 26 27 27 27 26 27 28 27 23 26 26 28 31 35 37 38 39 39 39 40 39 38 38
32 32 31 29 30 33 28 26 25 25 31 32 32 32 32 32 31 27 23 23 21 25 26 24 23 24 26 27 29 37 38 36 36 39 39 39 39 38
30 30 33 30 31 31 22 22 20 23 24 25 26 27 28 27 30 27 26 22 23 22 25 24 27 26 22 24 27 27 30 35 35 36 39 39 39 32
28 28 28 32 32 32 32 23 20 25 25 24 24 24 24 24 25 26 26 25 23 23 29 28 27 26 27 24 25 28 29 33 33 30 38 39 39 36
29 29 28 32 32 32 31 30 31 27 19 18 19 20 20 21 24 25 26 26 26 26 28 30 29 28 28 27 25 27 31 33 32 29 28 32 37 38
30 30 31 32 33 31 32 32 27 22 18 13 18 18 19 22 25 25 27 27 28 27 31 31 29 29 29 27 27 26 27 30 33 29 26 24 29 24
29 30 26 27 22 23 23 27 25 22 20 19 16 17 19 20 20 22 21 23 23 22 27 28 29 28 28 29 29 28 27 26 27 31 24 22 24 30
29 26 26 25 23 23 23 24 23 22 20 17 16 15 18 19 18 20 20 22 19 21 22 26 29 29 28 29 27 29 27 28 30 29 26 24 24 27
27 25 25 22 22 22 22 21 21 20 21 19 14 16 15 14 16 19 19 15 17 20 22 23 25 24 26 27 30 25 23 28 30 29 27 25 29 31
27 21 22 19 18 21 23 22 22 22 20 20 18 16 13 15 14 16 16 16 16 18 22 23 21 19 20 12 26 31 23 26 25 29 30 29 28 29
28 25 22 22 21 22 23 23 23 19 18 18 15 12 7 10 10 14 15 8 12 18 20 22 21 19 18 18 21 22 31 22 24 26 27 26 29 31
27 27 27 25 22 22 23 22 20 17 15 13 14 11 5 12 9 10 9 10 9 18 17 18 21 24 25 25 17 20 24 30 27 23 25 23 27 28
27 27 27 27 25 24 23 23 20 17 17 14 12 9 5 8 7 6 4 5 12 11 15 17 22 25 24 25 23 21 22 20 26 29 29 27 23 24
29 28 27 27 27 26 26 25 22 21 20 18 15 12 5 5 10 8 6 9 13 11 13 14 17 20 22 23 20 21 23 20 24 21 20 28 29 29

GFSNE_sfc_temp_057.txt.gz
Temp
36 36 36 37 37 37 36 36 35 31 26 29 29 32 33 34 36 36 33 39 42 42 43 44 44 45 46 46 47 47 48 49 49 50 50 51 52 53
38 36 36 36 36 36 39 38 36 34 26 28 29 30 31 36 36 34 33 40 39 40 41 42 42 43 44 44 45 45 46 47 48 48 49 50 51 51
37 37 37 37 35 35 34 32 31 31 28 28 28 28 27 28 30 30 32 31 32 38 39 40 40 41 41 42 42 43 44 45 46 46 47 48 49 49
37 36 36 40 35 33 31 31 29 28 26 24 25 26 26 27 28 27 32 35 31 37 39 39 39 40 40 40 41 41 42 42 43 44 44 45 46 47
37 35 35 35 32 30 29 28 28 31 26 24 24 25 25 26 27 28 28 28 33 37 37 37 37 37 38 39 40 40 40 41 41 41 42 42 43 44
35 34 34 33 31 30 30 28 28 26 25 24 24 25 24 26 26 24 25 28 28 33 33 34 36 36 37 37 38 39 39 40 41 41 40 39 40 41
33 33 33 34 38 34 30 27 26 24 23 23 22 22 23 23 22 24 24 25 26 28 27 28 30 30 30 33 35 37 38 39 40 40 40 39 38 40
31 31 31 35 35 37 37 34 29 25 22 20 21 20 21 21 21 22 22 21 22 27 25 26 29 28 30 30 34 36 38 38 39 40 40 37 37 39
30 30 31 35 34 31 34 34 33 32 27 23 19 20 18 22 23 22 23 23 23 27 25 25 28 25 30 33 36 37 38 38 38 39 39 37 36 38
30 30 31 30 30 30 28 27 27 28 28 28 23 23 24 25 25 27 26 25 25 26 26 22 25 25 28 29 35 37 38 38 38 38 38 39 39 38
30 30 31 30 32 34 28 26 26 27 31 32 32 32 32 32 30 22 21 21 20 24 26 23 22 25 27 28 30 36 37 38 37 37 36 37 39 38
29 30 33 31 32 32 24 22 21 25 25 26 25 27 28 27 29 26 22 19 20 20 25 23 25 26 22 23 24 28 28 34 36 35 35 37 39 33
30 28 29 32 33 33 32 24 22 26 25 24 24 23 24 24 24 25 24 21 20 22 27 26 24 27 26 25 24 26 26 31 32 33 33 37 39 36
30 29 29 32 33 33 31 30 31 26 23 21 19 20 19 21 23 24 26 25 25 25 27 24 25 26 26 25 24 25 27 32 32 31 28 31 36 37
33 32 31 32 32 31 32 31 28 24 21 17 18 19 18 22 24 24 26 26 25 26 30 25 26 26 26 26 26 28 28 28 29 31 28 28 31 24
32 33 31 30 28 28 25 28 24 22 22 20 18 17 18 18 18 21 19 21 19 19 26 26 26 25 25 27 28 28 29 27 25 27 29 26 25 29
30 30 27 26 26 25 24 24 24 22 20 17 15 16 17 18 17 18 19 20 15 17 20 25 27 27 26 28 26 25 26 27 30 30 26 25 28 31
29 27 25 25 25 25 23 24 21 20 22 20 16 17 17 15 15 17 17 13 13 17 18 21 23 20 23 24 30 26 25 25 29 29 27 23 24 27
29 26 25 26 24 24 23 23 22 22 22 22 18 17 17 16 13 15 14 14 14 15 18 19 21 18 17 6 25 30 25 25 25 28 29 28 26 28
30 28 25 25 24 23 23 22 23 22 19 18 15 15 14 13 10 13 13 7 10 15 17 19 18 20 18 15 18 22 29 23 22 23 23 24 25 30
30 29 28 26 26 24 24 23 22 21 16 12 16 16 11 12 9 10 9 9 8 17 15 16 18 22 24 24 16 19 22 29 27 25 24 23 24 24
31 28 29 28 26 25 24 22 21 19 17 16 15 16 12 11 10 8 2 4 11 10 13 16 20 22 22 23 21 21 22 21 25 29 29 28 23 21
30 28 28 28 27 26 25 23 22 21 20 19 18 17 12 8 11 9 5 8 12 11 11 12 16 18 18 21 19 20 21 21 22 21 20 28 29 29

GFSNE_sfc_temp_063.txt.gz
Temp
50 50 50 51 50 50 49 48 43 38 42 46 45 49 49 49 47 46 45 42 40 40 40 40 41 42 43 44 45 46 47 47 48 49 50 50 51 52
50 49 49 50 49 49 49 48 47 43 35 46 47 47 47 47 46 44 44 40 40 38 38 39 40 41 41 42 43 43 44 45 46 47 48 48 49 50
49 48 48 49 48 48 48 47 46 45 40 45 46 46 44 43 44 44 43 42 43 39 38 38 39 39 40 40 40 41 41 42 43 44 45 47 48 48
48 47 47 48 46 47 46 45 45 46 42 40 44 43 41 43 42 40 41 42 42 40 37 37 38 38 38 38 39 39 40 40 41 42 43 44 45 46
48 47 47 46 45 46 46 45 45 44 43 41 40 43 41 41 40 41 40 40 41 39 38 37 37 37 37 38 38 39 39 39 39 39 40 40 41 42
47 46 46 45 45 45 45 44 44 42 42 40 40 39 40 40 39 36 36 40 39 40 39 37 36 37 37 37 37 37 38 38 38 39 39 39 39 40
46 46 45 44 41 41 43 43 43 41 41 39 38 38 37 37 36 36 35 36 38 40 39 40 40 41 41 40 39 38 38 37 38 38 39 39 39 39
45 46 46 41 41 38 38 37 40 41 38 38 37 35 36 36 36 34 33 32 30 41 37 36 40 39 41 42 39 37 37 37 38 38 39 39 39 39
46 45 45 44 40 42 39 36 36 35 33 38 34 36 34 36 35 33 33 33 32 37 35 32 37 36 41 42 39 37 36 36 37 38 39 38 38 38
45 45 44 43 43 41 41 40 40 40 39 37 38 38 38 37 36 35 33 33 34 37 37 28 36 35 39 41 39 37 37 37 38 38 38 38 38 37
45 44 43 42 39 37 37 35 37 38 37 35 35 34 33 32 33 34 31 30 28 33 37 31 34 33 36 38 41 39 38 38 37 37 37 37 37 37
43 43 37 39 37 34 34 34 32 36 38 37 37 36 35 36 32 34 33 28 29 28 37 30 32 32 29 38 39 40 40 38 37 38 37 37 37 36
40 41 41 35 33 34 34 35 33 38 35 35 36 36 36 36 36 37 36 32 29 30 36 32 31 31 29 30 35 38 39 39 39 40 38 37 37 36
37 39 41 37 34 33 34 34 33 32 33 33 32 32 32 33 35 36 36 35 35 33 34 32 28 30 28 27 29 36 37 38 39 37 38 37 37 36
37 37 36 36 34 32 32 33 33 32 31 30 30 32 34 36 36 34 34 35 34 33 34 33 31 30 28 26 28 32 32 36 38 36 35 35 36 35
34 36 35 33 33 32 32 32 33 33 32 31 32 34 35 32 31 33 31 31 29 30 33 33 32 32 29 31 32 31 34 30 35 34 34 36 37 36
33 33 33 33 33 33 32 32 33 33 31 32 31 31 30 31 30 32 30 30 27 28 29 32 33 33 32 30 28 33 32 33 33 32 33 34 35 36
32 32 32 32 32 32 31 32 32 31 32 31 31 30 29 29 30 30 30 28 27 28 28 30 30 29 32 33 32 31 32 31 33 35 34 31 32 36
31 32 32 32 32 31 31 31 32 33 32 30 30 30 29 29 28 28 28 27 27 28 29 30 29 27 25 24 32 31 29 31 32 33 33 32 32 33
24 22 29 32 32 32 33 32 32 32 30 30 30 30 29 29 28 27 28 26 26 27 27 30 29 28 25 24 24 30 30 29 29 29 31 33 35 31
20 21 22 24 28 32 32 32 31 31 30 29 29 29 28 28 28 28 28 24 23 26 25 27 30 26 29 29 24 28 31 29 30 28 29 30 30 32
18 18 19 21 22 24 30 31 31 30 29 29 29 29 28 28 28 27 27 26 25 26 27 28 30 30 29 28 27 27 29 31 31 29 29 28 29 27
16 17 16 17 19 21 23 24 30 29 29 29 29 29 28 26 28 28 28 26 26 25 26 26 28 29 28 27 26 27 26 28 30 31 31 28 29 29

GFSNE_sfc_temp_066.txt.gz
Temp
57 57 57 58 57 57 56 55 49 43 48 55 54 57 55 56 54 53 51 48 44 42 41 41 41 42 43 43 44 45 46 47 48 48 49 50 50 51
57 56 56 57 57 56 56 55 54 50 45 54 54 56 55 55 53 51 50 46 44 43 41 40 40 40 41 41 42 43 43 44 45 46 47 48 49 50
56 55 54 55 55 55 55 54 53 52 48 51 55 56 52 50 51 52 50 50 49 44 42 41 39 39 39 40 40 40 41 42 42 43 44 45 47 48
55 55 53 55 53 54 53 52 52 53 50 46 51 52 51 51 50 48 48 50 49 46 42 40 39 38 38 38 39 39 39 40 41 41 42 43 44 45
55 54 54 53 52 53 52 52 52 52 51 48 47 51 51 51 48 48 47 47 49 45 42 40 40 40 39 39 39 39 39 39 39 39 39 40 41 42
54 54 54 53 52 51 51 51 51 50 49 48 47 47 48 49 48 44 43 47 46 48 45 42 40 40 39 39 39 39 39 38 39 39 39 38 38 39
54 54 53 51 46 46 50 49 49 48 48 46 45 45 44 44 43 46 42 44 45 46 46 46 46 46 46 44 43 41 40 39 39 38 38 39 38 39
52 53 54 48 45 39 39 38 41 45 44 44 43 39 40 41 44 43 41 39 37 47 43 42 45 44 46 47 41 39 39 39 38 38 38 38 39 39
53 53 53 54 48 50 43 37 37 37 35 42 39 40 38 40 42 41 40 40 39 43 41 37 43 41 45 47 41 40 39 38 38 37 37 38 38 38
52 52 51 51 51 48 48 47 47 46 44 42 42 42 41 43 43 42 40 39 40 42 43 34 41 39 43 44 41 41 38 39 39 38 38 38 38 37
51 51 51 50 46 42 45 42 43 44 43 39 38 38 36 34 35 38 35 34 32 38 42 38 38 38 40 41 44 40 39 39 39 39 38 38 38 37
47 48 43 44 41 38 41 41 36 41 42 40 41 39 36 38 33 36 38 33 34 33 41 36 37 37 33 40 41 41 42 40 39 39 39 39 38 40
40 42 45 39 37 37 36 38 35 41 38 39 39 40 40 40 42 39 39 37 34 35 41 38 35 35 34 34 39 40 40 40 41 40 39 39 39 38
37 40 41 38 37 36 36 35 34 34 36 36 36 36 37 37 40 41 40 40 41 38 40 37 31 32 31 32 32 37 38 39 40 39 39 40 38 38
36 36 34 35 34 34 34 34 33 33 33 33 33 35 37 39 39 38 39 40 40 39 39 37 35 35 33 30 31 32 32 37 40 38 39 38 38 39
34 35 36 34 34 34 34 35 34 33 34 34 35 38 39 37 36 36 34 35 34 35 38 38 36 35 32 34 34 32 34 32 38 37 38 38 39 39
30 32 34 37 37 38 38 37 35 34 33 34 35 34 34 35 34 35 34 33 31 33 34 37 38 37 36 34 31 33 34 35 37 36 37 36 39 39
30 30 30 32 34 36 36 36 34 33 35 35 34 34 33 32 33 33 33 31 30 33 34 35 36 34 35 37 36 33 33 33 34 36 35 34 36 40
28 28 26 28 30 31 37 35 33 34 35 35 34 34 33 32 31 31 31 30 30 32 34 35 34 32 29 27 35 32 31 32 32 32 34 34 33 36
27 25 24 25 26 28 29 32 34 34 34 34 33 33 32 31 31 31 31 30 29 32 33 35 34 33 30 27 26 32 31 30 31 30 32 34 37 33
25 24 24 24 24 25 26 28 30 33 33 33 32 32 31 32 31 31 30 29 29 32 30 32 36 28 33 32 26 29 33 30 30 30 31 31 33 34
22 22 23 23 22 22 23 24 27 29 32 32 32 31 31 31 30 30 30 29 29 30 32 35 35 34 33 31 30 29 32 32 32 30 29 28 29 28
20 20 20 20 21 21 21 21 23 25 27 32 32 31 31 30 31 31 31 30 30 30 31 31 33 33 31 32 30 30 29 30 32 32 31 29 29 30

GFSNE_sfc_temp_069.txt.gz
Temp
48 50 56 59 59 59 58 56 51 44 47 54 55 61 61 59 57 56 55 51 47 45 45 44 44 43 43 43 44 44 45 46 47 48 48 49 50 51
49 51 57 58 59 58 58 57 55 51 46 54 56 58 58 59 57 55 54 50 47 45 44 43 43 43 42 42 42 42 43 43 44 45 46 47 48 48
51 55 55 57 56 57 57 56 54 53 49 52 56 58 56 55 56 55 53 52 52 47 44 43 42 42 41 40 40 40 41 41 42 43 44 45 46 47
52 55 55 58 55 55 55 53 53 54 51 48 52 53 53 54 54 52 52 53 51 49 45 43 42 41 41 40 40 40 40 40 40 41 41 42 43 44
55 55 56 56 54 54 54 53 54 54 53 51 50 53 53 53 52 52 50 50 52 49 45 43 43 42 41 41 41 40 40 39 39 39 39 40 40 41
54 56 56 54 53 53 53 52 53 51 51 50 49 50 51 52 51 47 46 49 48 51 48 45 44 44 44 43 41 41 40 40 40 39 39 38 38 39
56 57 56 54 49 48 52 50 50 49 48 48 47 48 48 48 46 46 43 45 47 47 46 47 48 47 47 45 45 43 42 40 40 40 39 39 38 39
53 55 56 51 50 43 42 41 45 46 44 43 44 43 45 45 45 43 41 39 37 47 44 43 46 44 46 47 43 41 40 40 40 39 39 38 38 38
52 53 54 57 50 55 46 40 39 38 36 43 40 41 41 43 43 38 39 39 39 44 42 38 43 41 45 47 43 41 40 40 39 39 39 38 38 37
52 52 52 52 53 50 50 49 48 46 43 42 43 44 44 45 44 41 40 40 41 42 43 34 41 40 43 44 43 42 41 40 39 39 39 38 38 37
49 50 50 49 45 41 43 43 45 46 47 40 41 41 39 36 36 39 36 34 32 36 42 38 39 38 40 40 43 38 38 38 39 39 39 39 39 38
44 45 41 41 38 38 40 40 38 41 43 44 44 40 38 40 34 37 37 32 33 33 40 37 38 38 33 40 41 41 42 40 40 40 40 40 39 39
36 38 41 37 37 37 36 38 36 38 36 37 37 38 38 41 41 39 39 36 33 34 40 39 35 35 34 34 37 40 40 39 39 40 40 40 40 39
34 37 37 35 34 33 34 35 35 35 35 34 33 34 34 36 40 42 41 40 40 38 40 39 33 33 32 31 31 37 38 38 37 38 40 40 39 39
34 34 33 33 33 34 36 34 33 36 34 32 32 34 34 38 41 40 41 41 40 40 41 39 36 35 33 31 31 33 34 36 38 37 38 39 38 38
32 33 31 31 34 33 33 37 38 37 35 32 34 36 35 37 38 39 37 36 34 34 38 38 38 36 32 33 33 32 35 32 37 37 37 38 39 39
29 31 34 33 33 34 36 37 40 39 34 33 33 34 35 37 35 38 36 34 31 31 33 37 38 37 36 34 31 33 34 34 36 35 36 35 38 39
29 30 29 28 28 29 30 32 33 35 34 34 33 34 34 33 34 34 33 32 31 31 33 35 36 35 35 36 36 33 34 33 34 35 35 33 34 38
29 29 27 26 25 27 28 29 29 28 33 33 34 34 35 35 33 32 32 31 31 31 33 35 34 32 29 27 34 34 32 32 32 32 33 33 32 34
29 27 26 26 25 25 25 26 28 28 28 33 34 33 33 33 32 31 31 31 30 31 32 34 34 33 31 29 28 32 31 31 31 31 31 33 36 35
26 26 26 25 24 23 23 24 24 25 26 27 33 33 32 33 32 32 31 31 30 30 30 32 35 30 35 33 27 29 32 32 32 31 31 30 31 33
24 23 23 23 22 22 22 23 22 22 23 26 27 32 32 32 31 31 31 30 30 30 31 34 36 35 33 30 29 31 32 33 32 31 31 28 29 26
21 21 21 21 21 21 21 21 21 19 21 24 25 27 26 31 32 32 31 31 30 30 31 31 34 34 32 32 30 30 31 31 33 33 31 31 30 30

GFSNE_sfc_temp_072.txt.gz
Temp
45 46 47 49 51 51 49 47 41 32 37 42 42 49 49 48 47 44 44 49 47 46 45 46 47 47 46 45 45 45 45 46 46 47 47 48 49 50
46 46 46 49 51 49 49 47 45 41 37 42 43 45 48 53 51 47 46 50 47 46 45 46 46 46 45 44 44 44 43 44 44 45 45 46 47 48
45 45 47 50 48 48 47 46 44 42 39 41 44 45 44 44 46 44 46 44 43 47 45 44 44 44 44 43 43 42 42 42 42 43 44 44 46 46
45 46 48 53 49 47 46 44 43 43 40 39 43 44 43 44 43 42 47 51 43 48 46 44 43 43 42 42 42 41 41 41 41 41 42 42 43 44
48 47 49 49 46 45 44 43 43 48 42 39 40 41 40 41 41 42 42 42 47 49 46 44 44 44 43 42 42 42 41 41 40 40 40 40 40 41
49 50 49 48 46 44 45 43 45 40 40 38 37 38 38 41 39 38 36 36 40 48 47 44 43 44 44 43 42 42 42 41 41 40 40 39 39 39
48 50 49 48 47 45 48 42 41 39 39 39 38 37 36 34 34 35 37 36 35 37 37 36 37 37 38 42 43 44 43 42 41 41 40 39 39 39
44 46 47 47 47 43 42 42 44 43 40 40 38 37 36 35 35 32 31 31 28 35 37 31 35 33 36 37 43 42 41 40 40 40 39 39 38 38
42 43 46 51 44 46 43 40 38 39 36 40 38 36 35 37 35 33 31 30 30 33 33 29 31 30 35 43 42 42 41 40 40 39 39 38 38 38
42 42 41 41 41 39 38 36 37 39 40 39 37 37 38 39 39 37 33 32 31 32 34 25 29 29 32 34 42 42 41 40 40 39 39 39 38 38
41 40 39 37 38 38 34 32 33 35 41 41 40 39 40 39 40 35 31 29 24 28 31 29 29 28 30 30 32 41 39 39 39 39 39 39 39 38
33 36 36 35 35 35 31 30 28 31 33 34 34 35 38 36 36 38 33 29 27 23 30 29 28 28 23 28 30 31 30 37 39 39 39 39 40 35
29 30 31 35 35 34 33 30 29 31 31 31 32 33 33 36 33 32 34 32 30 29 31 26 25 27 23 24 26 29 29 29 28 32 37 38 39 38
28 29 30 33 33 33 32 33 33 32 31 31 30 31 33 34 35 34 34 34 34 32 33 31 24 26 24 22 24 26 26 28 29 28 29 35 38 38
29 30 31 31 31 31 34 34 33 31 31 30 30 30 32 35 34 32 34 35 34 33 37 33 29 29 25 22 24 25 26 28 28 26 29 30 29 29
27 26 26 28 27 29 29 31 31 31 30 31 31 32 33 33 32 32 31 29 27 26 32 33 31 31 27 27 26 25 26 22 27 25 31 30 29 31
23 24 25 26 26 26 26 27 28 28 27 27 32 32 31 32 31 31 30 30 28 26 26 28 31 32 31 29 24 27 28 26 28 29 28 27 28 29
22 21 19 19 21 22 22 23 24 24 25 26 27 32 31 32 31 32 31 29 28 28 28 28 28 28 29 30 33 28 27 27 23 27 27 25 26 27
21 20 16 16 19 22 22 22 21 23 24 24 25 27 31 30 30 29 30 29 28 28 27 28 28 27 24 13 27 34 24 25 24 23 27 23 24 28
21 20 18 18 19 20 20 20 20 21 20 21 22 24 29 28 27 28 29 28 28 28 27 28 28 29 25 20 17 20 33 23 22 22 22 25 27 32
21 20 17 19 18 19 18 19 18 19 18 18 20 22 23 26 25 24 29 29 28 28 26 27 29 29 28 24 13 15 21 33 29 23 24 20 22 25
16 18 18 18 17 17 17 17 17 16 17 17 17 20 20 20 21 27 29 29 27 26 27 28 30 29 26 26 21 15 23 27 30 32 31 28 19 15
13 16 15 14 16 16 16 14 15 15 15 16 16 17 17 16 19 20 29 28 28 26 27 26 28 28 28 28 24 21 21 19 24 23 21 30 30 30

GFSNE_sfc_temp_075.txt.gz
Temp
45 45 45 46 47 47 48 48 40 30 34 39 40 45 45 43 45 44 41 47 46 46 47 47 48 48 49 49 48 47 47 47 46 46 47 47 48 49
45 45 45 46 46 48 49 46 43 40 36 39 40 42 45 50 47 43 42 47 46 45 45 45 46 47 48 47 47 46 46 46 45 45 45 45 46 47
45 45 45 47 46 45 44 45 42 39 35 37 40 41 40 41 44 43 42 42 43 45 44 44 44 45 45 45 45 45 45 45 44 44 44 44 45 46
45 45 45 48 44 44 43 42 40 40 38 38 37 38 39 41 40 39 45 48 43 46 46 45 45 44 44 43 43 43 43 43 43 43 43 43 43 44
46 45 46 45 43 41 41 40 41 45 39 35 39 36 36 37 37 38 39 40 44 47 45 44 44 44 43 43 43 42 42 42 41 41 41 41 41 41
46 46 45 44 45 42 41 40 41 37 36 35 38 34 33 36 35 34 33 35 35 45 46 43 43 44 44 43 43 43 42 42 42 41 40 39 39 40
45 48 47 46 44 43 44 39 38 35 33 33 36 37 31 30 31 32 34 32 33 34 34 34 35 36 35 42 42 43 42 42 42 42 41 40 39 39
40 41 41 43 42 39 38 38 36 33 31 32 36 36 37 33 33 36 33 33 31 32 32 30 33 31 33 35 40 41 42 41 42 41 41 40 39 38
37 37 40 43 38 36 36 36 35 37 33 31 31 33 34 37 36 33 33 31 33 34 31 27 29 29 32 39 41 41 41 40 40 40 40 39 38 38
36 35 34 32 34 35 32 30 31 32 33 35 33 34 35 36 37 36 34 34 33 31 31 25 27 27 29 31 38 41 41 40 40 40 40 39 38 38
34 33 33 31 35 36 31 28 28 29 35 36 36 37 38 37 37 35 33 32 30 27 29 30 27 25 28 28 31 39 40 39 39 39 40 39 39 38
29 31 33 32 33 33 29 27 25 28 29 30 30 31 33 33 35 34 33 31 30 27 29 30 27 25 22 25 28 29 28 35 37 38 39 39 39 33
27 27 27 31 32 32 32 29 28 31 31 32 31 32 31 31 31 34 34 32 31 29 31 28 25 25 23 23 25 29 28 27 25 29 35 37 38 37
27 27 27 31 31 32 31 32 32 30 31 30 30 31 32 32 31 32 34 34 34 33 33 29 22 25 23 21 21 26 24 25 23 25 27 32 35 36
27 27 29 29 30 28 31 30 27 26 25 25 25 27 30 32 32 32 34 33 32 33 34 31 27 27 25 23 22 23 22 25 24 22 23 26 26 26
26 25 24 26 25 25 25 26 24 23 23 23 23 25 28 31 32 33 32 31 29 30 32 31 30 30 26 27 25 25 23 21 23 23 27 31 28 27
20 19 22 23 23 23 23 23 23 22 21 22 21 22 25 25 31 32 32 30 28 26 27 28 30 30 29 29 23 25 25 23 23 25 26 24 25 27
20 16 16 11 13 19 18 19 19 18 20 20 19 21 21 23 24 31 30 29 27 25 25 27 28 26 26 29 32 27 22 23 21 25 25 22 25 27
15 14 7 4 8 18 18 17 16 18 19 19 17 17 20 23 21 28 30 29 27 27 27 27 28 26 24 20 27 34 26 26 23 21 23 22 22 27
17 12 8 7 10 14 15 15 16 16 16 16 16 16 17 20 18 19 28 27 28 28 27 28 27 27 24 21 20 20 32 23 20 18 19 21 24 30
15 16 10 12 12 14 8 8 5 9 11 11 14 15 14 17 16 17 19 22 24 28 27 26 29 28 28 25 17 15 19 32 29 23 22 18 18 22
11 13 13 11 9 9 4 7 11 8 11 12 11 13 13 15 14 15 16 17 21 29 27 28 29 29 27 26 21 12 19 22 30 32 31 28 18 14
8 10 7 5 5 3 9 11 9 4 9 10 11 11 10 11 14 14 14 16 19 27 25 26 27 28 28 28 24 20 19 17 23 22 20 29 31 29

GFSNE_sfc_temp_078.txt.gz
Temp
46 47 47 47 47 47 46 46 42 37 39 40 41 45 44 44 45 42 41 46 46 46 47 49 50 50 50 50 50 50 49 49 49 48 48 47 48 49
46 46 46 46 46 46 46 46 45 42 36 38 40 41 44 47 46 42 41 46 46 45 45 46 47 48 49 49 49 49 49 48 48 47 47 46 46 47
46 46 46 46 45 46 46 45 43 38 34 37 38 40 39 40 43 41 41 40 40 45 44 45 45 46 46 46 47 47 47 47 47 47 46 46 46 46
45 45 45 48 45 45 44 41 39 39 36 35 36 36 37 39 39 39 43 46 41 44 45 45 45 45 44 44 44 45 44 44 45 45 45 45 45 45
46 45 45 45 43 42 40 39 39 43 37 34 37 35 35 35 36 36 37 38 42 46 44 43 44 44 44 44 44 44 43 43 42 42 42 42 43 43
46 46 46 44 42 40 39 38 40 39 38 33 34 33 31 34 34 33 33 32 35 44 45 42 43 44 44 44 43 43 43 42 42 41 40 40 40 40
46 46 45 43 40 40 37 32 32 30 30 29 29 29 30 29 29 31 31 33 31 33 35 38 35 37 37 43 43 43 42 42 42 42 41 40 39 39
40 37 39 40 38 37 37 37 35 30 28 26 27 28 30 30 32 30 35 33 31 33 33 33 33 33 35 32 39 41 41 42 42 42 41 40 40 39
34 34 37 38 34 33 33 33 33 34 31 28 26 26 27 29 30 31 34 33 32 34 31 31 28 29 32 38 40 40 41 41 41 40 40 39 39 38
32 32 31 30 32 32 30 28 28 28 30 31 27 28 29 31 31 33 32 31 33 35 35 30 28 31 29 30 38 40 40 40 40 40 39 39 39 38
32 31 31 30 33 34 29 26 26 28 33 35 35 35 35 35 34 31 28 26 25 29 29 31 33 30 28 28 30 38 39 39 39 39 39 39 39 38
29 31 32 30 32 32 28 26 25 27 28 29 31 34 35 34 33 31 29 26 28 27 30 29 30 28 25 26 28 28 28 35 37 37 38 38 38 32
28 28 28 30 31 32 32 27 27 28 27 27 28 28 30 32 34 34 31 29 28 28 34 30 28 27 24 23 24 27 26 26 24 28 34 36 37 35
28 28 27 30 31 31 30 31 30 27 24 22 23 24 25 25 28 31 33 32 32 31 35 32 27 27 24 20 21 24 23 24 21 24 25 30 33 35
28 28 28 29 29 28 29 29 25 22 21 19 19 21 22 25 27 28 32 33 33 34 35 32 27 27 24 22 21 22 22 26 22 20 22 24 25 27
26 26 25 25 24 24 25 26 24 22 20 19 19 20 22 22 23 26 24 30 31 31 32 31 30 29 25 25 25 22 24 22 23 22 24 24 29 27
22 21 22 22 22 22 22 22 21 20 18 18 17 18 18 19 20 24 23 24 29 28 29 29 30 30 29 28 23 24 25 24 23 24 25 25 25 26
22 17 13 10 13 18 16 16 16 15 17 17 16 17 15 15 17 20 23 19 26 28 28 28 28 26 28 27 31 26 21 22 17 24 25 21 23 24
17 16 8 4 8 15 14 13 13 15 16 15 13 14 14 15 15 15 18 19 19 28 27 27 29 27 24 13 26 33 26 24 23 21 22 22 21 23
20 15 11 9 11 13 12 12 13 11 10 11 11 9 10 13 12 13 15 15 17 19 27 27 28 28 25 19 17 24 32 25 22 19 18 20 23 29
17 16 12 13 12 11 4 1 -3 4 -0 -1 5 5 9 10 9 11 13 14 14 17 22 27 28 29 29 24 16 19 19 31 28 23 22 17 18 19
12 14 13 12 6 5 -2 -6 1 -2 3 3 5 3 4 6 7 8 11 12 13 15 17 24 29 28 24 25 22 16 19 21 27 32 30 28 19 14
8 11 10 3 3 2 6 4 1 -2 3 6 8 8 6 5 7 8 11 12 13 14 16 23 26 27 26 27 25 21 19 17 21 21 19 29 30 31

GFSNE_sfc_temp_084.txt.gz
Temp
52 51 52 51 50 50 49 48 47 41 41 44 45 48 48 47 48 46 45 47 47 47 47 48 49 51 52 53 53 54 55 55 54 54 53 52 52 52
52 50 50 49 49 48 48 47 47 45 41 44 44 46 47 48 47 45 44 47 46 45 45 46 47 48 49 50 51 52 52 53 53 52 52 52 51 51
49 49 49 48 47 47 47 46 45 44 40 42 43 43 42 42 44 43 43 42 42 44 44 44 45 45 46 47 47 48 49 50 50 51 51 51 51 51
48 48 47 48 47 46 45 44 44 43 41 38 40 40 40 41 40 39 42 44 42 44 44 44 44 45 44 44 44 45 45 46 47 48 49 48 47 50
48 47 47 46 45 44 43 43 42 43 40 37 38 37 37 37 37 37 38 38 41 44 43 43 43 44 44 44 45 44 44 44 44 44 44 44 46 47
47 47 46 45 45 43 42 41 40 38 36 35 34 33 34 35 33 32 33 35 35 40 42 41 41 42 43 43 43 44 44 43 43 42 41 40 42 43
45 44 42 42 41 42 40 37 36 34 32 31 30 29 30 30 31 31 30 31 32 34 35 36 36 37 39 41 41 42 42 43 43 42 42 41 40 41
38 37 38 38 37 37 37 36 35 33 30 29 28 28 28 29 29 28 27 27 26 34 32 32 36 36 37 39 39 39 40 41 41 43 42 41 40 40
36 36 37 36 34 35 34 34 33 34 30 29 27 27 27 28 28 27 26 27 27 32 32 29 34 32 36 38 39 39 40 40 39 41 42 40 40 39
35 34 34 33 33 32 31 31 30 31 31 31 29 29 28 29 29 31 31 31 31 33 33 26 33 31 34 36 37 38 39 39 40 40 40 40 39 38
33 33 33 32 33 33 30 29 29 30 32 33 32 33 33 33 33 31 28 28 26 30 33 29 31 31 33 33 35 36 37 38 40 39 40 40 39 38
32 32 32 31 31 32 29 28 26 27 27 28 28 28 29 30 30 29 27 23 24 25 31 27 30 30 28 31 31 32 33 35 36 38 40 39 38 38
30 29 29 30 31 31 31 29 27 27 26 25 25 25 26 26 26 26 26 25 22 23 31 29 29 30 28 29 31 32 32 32 33 35 38 38 38 37
29 29 28 29 30 30 29 29 27 25 24 22 21 21 22 22 23 24 25 25 27 25 28 28 24 28 29 28 27 31 30 30 31 32 32 33 34 35
28 28 28 29 29 29 29 28 24 23 21 19 19 19 20 22 23 23 23 24 25 26 28 27 26 27 29 29 28 28 29 30 29 30 30 31 32 32
27 27 26 26 26 26 26 25 23 22 20 19 18 19 20 19 19 20 18 18 18 20 26 27 27 27 29 30 30 27 29 28 29 28 29 30 31 31
25 24 24 23 22 22 22 22 21 21 18 19 17 17 16 16 15 17 16 16 14 15 17 22 25 25 27 31 27 29 29 28 29 29 29 29 31 32
23 20 18 17 18 19 18 18 18 17 17 17 16 15 13 12 12 13 15 12 11 13 14 18 19 20 29 30 32 29 28 28 27 29 29 27 28 31
20 19 16 15 15 17 17 16 14 15 16 14 13 11 11 11 9 10 10 9 9 10 12 16 17 18 18 22 29 33 28 27 28 26 28 27 28 30
20 17 14 14 14 15 14 13 13 12 10 11 9 7 5 6 7 8 8 6 7 9 10 15 16 18 15 18 23 27 33 29 27 26 25 27 28 29
16 16 14 14 14 13 11 9 4 2 4 2 2 2 1 4 6 7 6 5 5 8 9 11 15 19 19 21 23 24 26 32 30 29 26 25 25 25
12 13 13 12 10 10 6 1 -1 -0 2 2 3 -0 -0 2 4 4 5 4 6 8 9 12 16 18 18 18 23 22 25 25 30 31 30 30 26 23
7 7 7 5 5 5 6 4 1 -3 0 1 2 4 2 1 4 5 6 6 7 7 7 9 14 15 17 19 25 23 21 22 26 26 27 29 31 31

GFSNE_sfc_temp_087.txt.gz
Temp
56 55 54 53 53 55 54 53 54 43 47 51 55 57 57 51 53 52 56 50 47 47 48 49 50 51 52 52 53 54 55 56 56 57 57 57 56 55
56 53 53 52 52 51 51 52 53 50 46 53 53 50 51 53 52 51 51 49 48 45 45 46 47 49 50 50 51 51 52 53 54 54 55 55 55 54
53 52 53 54 51 50 50 49 49 52 49 47 46 47 47 47 49 51 53 54 55 45 44 44 44 45 46 46 46 48 48 50 50 52 53 54 54 53
53 53 54 52 50 48 48 48 48 47 43 42 43 42 43 46 50 49 51 53 52 48 44 44 44 44 44 44 44 44 44 45 46 47 48 50 52 53
53 52 51 49 47 46 46 45 44 44 46 41 39 42 46 48 46 47 48 49 49 46 44 43 43 44 44 44 44 43 44 43 43 43 44 45 46 48
51 50 49 48 46 45 44 44 44 43 41 39 40 43 45 44 45 44 45 46 44 47 45 43 42 43 42 42 42 42 42 43 43 43 42 41 42 44
47 46 45 45 43 43 44 41 41 37 36 36 40 39 40 43 42 45 41 43 43 44 43 45 45 46 46 43 43 42 42 41 41 41 42 41 41 42
38 37 37 37 36 36 36 36 39 38 38 39 40 40 42 40 41 39 38 37 37 45 41 40 44 42 44 46 43 40 40 40 40 40 41 39 41 40
36 36 36 35 35 35 34 35 34 34 33 39 39 38 37 39 37 36 36 36 36 41 39 36 42 39 44 46 41 40 39 39 39 39 40 39 39 39
35 35 34 33 34 35 34 34 35 35 36 37 38 37 37 37 37 37 36 36 38 40 41 32 40 39 43 44 41 40 39 39 39 39 39 39 39 39
33 34 34 33 32 34 34 34 34 35 34 33 32 32 32 32 33 34 32 32 31 36 40 37 38 38 40 41 43 40 39 38 37 38 38 39 39 39
33 31 30 32 32 32 33 34 32 34 33 33 34 33 32 32 29 32 32 28 29 30 39 34 37 37 32 41 42 41 42 39 36 37 39 39 39 44
30 30 32 31 32 32 32 34 31 32 28 29 30 30 30 30 30 30 29 28 27 29 35 32 32 32 30 32 37 40 41 41 39 37 35 38 39 41
29 30 30 29 29 30 30 30 28 28 29 28 26 26 26 26 28 29 28 28 29 28 30 28 25 28 27 27 30 38 40 41 39 39 40 37 37 37
29 28 27 29 29 30 29 28 26 28 26 25 24 25 25 26 27 26 26 26 26 26 28 28 27 28 28 26 27 32 34 39 39 38 39 39 39 40
27 28 27 27 27 28 27 27 28 27 24 23 23 24 24 23 22 23 21 22 22 24 29 29 29 29 26 28 29 31 35 31 39 38 38 39 39 40
29 29 29 28 27 27 26 26 25 24 23 23 22 22 22 22 21 23 22 21 20 21 22 26 29 29 28 27 26 30 35 34 37 37 36 35 38 39
28 26 25 24 24 24 23 23 23 21 21 21 20 20 19 18 18 19 20 19 18 19 20 22 23 23 26 31 33 30 33 34 35 37 37 34 35 39
25 24 23 22 21 22 21 20 19 20 19 19 18 17 16 16 15 16 16 17 16 17 19 21 20 20 18 19 30 34 32 34 33 33 35 35 35 37
23 21 19 20 20 19 19 18 17 17 16 16 16 15 14 14 13 14 15 13 14 15 16 19 20 20 17 16 17 23 26 31 31 32 34 36 37 30
18 18 17 17 16 16 15 15 14 13 12 12 12 12 12 12 12 12 13 11 11 13 14 16 20 19 20 21 18 22 28 32 34 35 36 33 32 33
14 14 14 14 13 13 12 12 12 11 11 11 11 10 11 11 10 10 11 11 12 13 14 17 20 20 20 17 18 20 26 31 31 32 34 34 33 28
10 11 10 10 11 11 11 10 9 8 9 9 9 10 10 8 10 11 12 12 12 12 13 14 17 19 18 16 16 18 26 29 31 29 32 29 31 31

GFSNE_sfc_temp_090.txt.gz
Temp
67 67 66 66 65 62 55 57 52 48 49 54 56 62 64 63 60 61 58 51 48 48 48 50 51 52 53 53 54 54 55 56 56 57 57 57 58 58
63 62 61 61 60 57 54 55 53 52 49 54 53 57 62 64 58 57 59 52 48 46 46 46 47 49 49 50 50 51 52 53 53 54 55 56 56 57
60 58 58 57 55 54 54 55 52 51 49 49 54 51 55 57 52 52 53 54 55 46 45 45 45 45 46 46 46 47 48 49 49 50 51 52 53 55
60 60 57 55 54 54 55 54 51 51 49 48 45 44 45 49 50 48 51 55 57 51 46 45 44 44 44 44 44 44 45 45 45 46 47 48 49 50
61 59 56 55 53 55 55 51 52 47 45 44 42 47 45 46 46 48 49 55 57 51 44 44 44 44 44 44 44 44 43 43 42 43 43 43 45 46
58 56 54 54 53 51 48 46 45 44 44 43 43 42 43 44 45 47 48 53 53 57 51 46 45 45 44 43 42 42 42 42 42 42 41 41 41 42
51 48 46 48 45 45 46 47 44 41 40 39 39 39 38 42 44 50 50 51 52 52 51 50 49 49 49 45 44 44 43 42 42 41 40 40 40 41
39 38 37 37 36 35 35 34 36 36 36 36 37 38 42 45 48 47 46 44 42 53 48 47 48 46 46 47 45 43 41 41 41 40 40 40 40 40
37 36 35 35 34 34 33 34 33 33 31 38 36 39 42 45 45 43 43 42 41 46 45 42 47 44 47 48 43 42 41 40 40 40 39 39 39 39
34 34 33 32 32 32 34 34 35 35 35 38 39 41 42 42 42 41 40 40 41 43 45 37 44 43 46 48 44 42 41 40 40 39 39 38 38 38
32 32 32 31 31 34 33 33 34 34 32 30 30 32 32 31 33 36 35 36 34 39 44 40 41 40 43 44 46 43 41 40 39 39 38 38 38 38
31 31 31 31 31 31 34 35 33 36 36 36 38 36 34 37 31 34 36 31 31 32 40 36 38 37 33 42 45 46 45 40 38 39 38 37 38 42
30 30 31 30 30 30 30 33 31 34 31 34 36 37 37 37 36 36 35 32 29 31 38 35 33 34 32 34 38 42 42 42 44 43 39 37 38 40
30 32 31 28 29 30 31 30 29 30 34 33 32 31 31 31 33 34 33 33 33 30 32 30 26 28 28 28 31 38 39 41 43 41 42 40 35 36
32 29 29 30 30 30 30 29 27 31 30 28 28 29 30 31 31 30 30 31 31 30 31 30 28 29 29 28 30 33 33 37 40 40 41 39 39 40
30 32 30 29 28 29 29 29 31 30 28 27 27 28 29 28 27 28 26 27 26 28 33 33 32 31 28 30 31 31 35 32 38 39 40 39 41 42
31 33 31 31 30 30 30 30 29 29 26 26 25 24 24 25 24 26 24 24 22 24 26 31 32 32 31 29 26 30 31 33 37 37 37 37 39 40
31 29 27 27 26 27 26 26 26 25 24 23 22 22 21 21 20 21 21 20 19 21 23 26 27 26 27 30 32 30 32 33 35 35 37 35 35 39
27 26 24 23 23 25 24 23 21 22 22 21 19 19 18 18 17 17 18 18 18 19 22 23 23 22 20 19 29 33 28 30 26 31 36 35 34 38
25 24 22 22 21 21 21 20 19 19 18 18 17 16 16 15 14 15 16 15 16 17 18 21 21 21 18 17 19 24 26 25 25 26 34 35 37 30
21 21 21 21 20 19 18 17 16 16 15 15 15 15 14 14 13 14 15 14 14 16 15 17 21 22 23 24 18 22 28 31 29 27 33 32 33 35
18 19 19 18 17 17 16 16 15 15 15 14 13 13 14 14 13 13 13 13 14 15 16 19 22 22 20 19 18 20 24 26 27 30 31 35 35 30
16 16 16 16 16 16 16 15 14 13 13 13 13 13 13 12 13 14 14 14 15 15 16 16 18 20 19 19 19 20 19 20 23 30 30 31 31 31

GFSNE_sfc_temp_096.txt.gz
Temp
60 60 60 61 61 61 59 58 56 52 53 54 52 56 58 57 56 57 57 54 49 50 51 52 53 54 54 55 55 56 57 57 58 58 58 58 59 59
62 60 60 61 61 61 61 58 56 55 52 58 57 57 56 58 56 55 56 53 49 48 47 49 50 52 52 52 53 53 54 55 55 56 56 56 57 57
61 60 61 62 60 60 56 56 56 56 53 56 58 55 54 53 54 55 54 54 53 47 46 47 47 48 48 49 49 50 51 51 52 52 53 54 55 55
62 61 62 62 59 57 56 56 56 57 54 52 54 49 51 49 50 47 50 52 50 47 45 45 46 45 45 45 45 45 46 46 47 48 49 50 51 52
63 61 62 57 55 56 56 56 56 54 54 52 51 43 43 43 43 44 45 45 48 49 46 44 45 45 45 45 45 44 44 43 43 43 44 45 46 47
59 51 45 43 44 48 53 53 52 51 49 47 42 40 40 40 40 39 40 42 42 48 47 44 44 44 44 44 44 44 43 43 43 42 42 41 41 42
40 39 38 39 38 37 41 38 42 41 40 38 36 36 36 36 36 37 36 36 38 41 40 41 42 44 46 44 45 45 43 43 43 42 42 41 40 40
36 35 35 36 35 35 35 34 34 35 34 34 33 32 31 32 32 32 32 32 31 40 34 34 39 38 43 43 45 44 43 43 43 42 42 41 40 40
34 34 33 34 34 34 33 34 34 34 32 33 31 31 31 31 32 32 32 32 31 35 35 32 36 36 41 46 44 44 43 43 43 42 41 40 39 39
32 32 32 32 33 33 33 32 31 31 31 32 31 31 31 32 32 32 31 31 32 35 37 28 33 33 37 40 42 43 43 43 42 41 41 40 39 38
32 31 31 31 33 35 32 31 32 31 32 33 33 33 33 33 32 30 28 27 25 28 33 31 32 30 31 32 36 41 41 40 40 40 40 40 40 39
30 31 31 31 32 32 32 31 29 29 31 32 33 35 35 34 33 29 28 24 24 23 28 25 26 26 23 28 29 31 33 36 38 38 40 40 40 38
30 29 30 32 32 33 31 28 28 29 31 30 30 30 30 30 30 30 30 27 24 23 29 27 24 24 24 23 26 28 29 31 32 34 37 39 40 40
30 30 30 32 32 32 30 31 31 30 28 25 25 25 24 25 26 27 28 27 28 27 28 27 23 23 22 20 20 26 27 28 29 30 32 35 37 38
30 31 32 33 32 30 30 30 29 26 23 21 21 22 23 24 25 25 26 26 25 26 28 26 24 24 23 20 20 23 22 26 28 29 28 29 31 32
31 30 29 30 29 29 29 28 26 24 22 20 19 20 22 21 20 21 19 20 18 19 25 25 25 24 21 22 22 21 23 20 25 26 28 29 31 32
30 29 27 26 26 26 25 24 24 22 19 18 17 17 18 18 17 18 18 17 14 15 17 21 24 23 22 22 18 21 21 22 23 23 23 22 27 30
27 23 21 20 18 20 19 19 19 17 18 18 15 16 15 14 15 16 17 14 13 14 15 17 18 16 18 21 25 20 19 19 20 22 23 21 22 27
22 20 16 15 15 18 17 16 15 15 17 15 13 13 13 14 12 12 12 12 12 13 14 16 15 15 11 8 18 25 17 18 19 18 21 21 21 24
20 17 15 14 16 16 15 14 14 13 13 13 11 10 8 11 11 11 12 9 10 12 12 15 15 15 11 9 11 16 25 20 19 18 19 22 24 29
18 17 14 15 14 13 9 9 7 8 7 5 8 8 3 10 9 10 10 10 10 12 11 12 15 19 19 18 11 13 17 25 25 21 20 20 19 21
15 15 15 13 10 11 7 6 7 6 7 7 3 3 4 8 8 9 9 9 11 11 12 15 18 18 15 13 11 11 14 18 24 26 27 25 19 16
10 12 10 9 10 9 11 7 7 3 6 6 8 8 5 6 9 9 10 10 10 10 11 12 14 15 14 14 13 13 13 15 18 18 20 25 25 26

GFSNE_sfc_temp_099.txt.gz
Temp
58 57 57 57 57 57 57 55 55 52 52 56 54 57 57 56 56 57 57 56 51 50 50 52 54 55 55 56 58 59 59 59 60 60 60 60 60 60
58 57 58 57 57 58 58 58 57 56 53 55 54 57 57 57 57 57 58 54 51 49 48 49 50 52 53 54 54 54 56 56 57 57 57 57 58 58
57 57 58 58 58 58 58 58 57 56 54 58 57 59 54 53 55 55 55 55 55 48 47 47 46 47 48 48 48 50 51 51 52 53 54 55 56 56
57 57 58 58 57 59 58 57 54 55 54 53 57 55 51 49 46 47 48 50 48 46 45 45 45 45 45 44 44 45 45 46 46 46 48 49 50 52
59 57 57 54 54 54 53 54 55 55 55 53 52 43 43 43 43 44 44 45 47 47 45 44 44 44 44 44 44 44 43 43 42 42 42 42 44 46
46 44 42 41 42 43 47 44 46 46 44 42 40 39 39 40 40 38 38 40 39 44 43 41 42 42 43 43 43 43 43 42 42 41 41 41 41 43
39 38 38 39 38 38 41 39 41 39 38 37 35 35 34 33 32 34 34 35 37 38 37 39 39 39 40 41 42 43 43 42 42 42 42 41 40 41
35 35 36 36 36 35 35 35 35 35 33 33 32 31 30 32 32 31 31 29 28 38 33 33 37 35 39 41 42 42 41 42 42 42 43 42 41 41
34 34 34 34 34 34 33 33 33 33 31 33 30 30 29 29 28 26 25 24 25 31 32 28 31 31 36 40 39 39 40 40 40 40 40 41 41 40
33 32 32 32 32 33 32 31 31 32 32 33 30 31 28 29 29 29 27 27 28 31 32 23 28 28 30 32 37 38 37 37 37 37 37 39 39 39
31 31 31 31 33 36 33 31 31 32 34 35 34 35 35 35 32 26 26 24 23 25 26 24 25 25 27 27 29 34 35 35 35 35 35 35 35 36
30 30 32 32 33 33 30 29 28 29 30 29 30 30 30 30 30 28 25 21 21 20 25 22 23 23 19 26 26 27 27 31 33 33 34 35 34 33
29 29 32 32 32 32 31 30 29 30 29 28 26 26 25 24 25 25 25 22 19 19 25 22 21 21 20 20 24 25 26 26 26 28 32 33 34 33
29 30 30 32 32 31 31 30 29 27 25 23 22 21 20 21 23 23 24 23 23 21 23 22 13 18 17 15 16 23 24 24 27 26 26 30 32 33
30 31 32 32 31 30 30 28 26 24 21 17 17 18 20 21 22 21 22 22 22 23 25 23 20 20 18 15 15 17 18 22 24 23 23 23 24 26
29 29 29 29 28 26 26 24 23 21 18 16 16 17 19 18 17 19 16 17 15 16 22 23 22 20 16 17 17 16 19 16 21 21 21 22 24 25
26 25 23 23 23 22 21 19 19 18 17 16 14 15 15 15 15 16 15 14 11 12 14 18 21 21 20 19 15 18 18 17 18 18 19 19 22 24
23 19 16 15 16 17 16 15 16 15 16 15 11 14 12 11 12 13 14 11 10 11 12 14 15 14 16 18 22 16 15 15 16 19 19 17 18 23
18 15 12 11 14 15 15 14 12 13 15 13 10 9 10 11 10 10 10 9 8 10 12 14 13 11 8 5 15 23 15 16 16 16 18 17 17 20
17 14 13 13 14 13 13 12 11 9 8 9 4 2 2 8 7 8 9 7 8 10 10 12 11 11 9 8 9 13 22 16 15 14 15 18 21 25
15 14 12 13 12 11 4 1 -4 -2 -3 -5 2 4 -3 6 5 6 7 6 7 9 8 9 12 16 16 14 8 10 15 22 22 17 17 15 15 18
12 12 12 10 6 6 -3 -7 -3 -4 -1 1 -6 -8 -4 1 3 5 5 6 7 7 9 12 14 14 12 11 8 9 12 16 21 23 24 23 17 14
7 8 7 3 3 -0 3 -3 -3 -10 0 2 0 1 -9 -3 4 5 5 5 6 7 8 8 10 12 11 11 10 10 12 13 16 16 19 25 25 25

GFSNE_sfc_temp_102.txt.gz
Temp
57 57 57 58 56 56 55 54 53 50 50 52 52 56 57 56 55 57 58 55 51 50 51 52 53 55 55 56 57 58 59 59 59 59 59 60 60 61
58 57 57 57 56 55 56 57 55 55 52 53 54 54 55 56 57 56 58 53 51 48 47 48 49 51 52 52 54 54 55 55 55 56 56 56 57 59
57 57 58 58 58 57 56 56 56 55 53 57 56 55 53 54 52 53 51 51 50 45 45 45 45 46 46 47 47 49 50 51 51 52 53 53 54 54
57 55 57 58 57 57 57 56 56 57 55 55 57 49 45 45 46 46 46 48 47 46 44 44 44 44 44 44 44 45 45 45 45 44 44 46 46 48
58 57 58 55 54 53 53 54 55 54 53 51 45 42 41 42 42 43 43 43 46 46 43 42 42 42 42 42 43 43 43 42 42 41 41 41 42 43
48 45 43 43 44 45 47 44 46 44 44 43 39 38 38 39 37 36 36 39 39 42 41 40 41 41 41 41 41 40 40 40 40 40 40 39 39 40
39 39 39 39 38 38 41 39 40 39 37 37 35 34 33 32 31 33 32 34 35 35 33 34 36 37 38 39 41 40 38 38 38 38 39 39 39 40
36 36 36 37 36 36 35 35 35 36 34 33 32 30 29 30 31 29 27 26 26 33 29 29 32 31 34 36 37 38 39 38 37 36 35 35 36 36
35 34 34 35 35 34 33 33 33 33 32 32 29 29 28 28 28 25 24 22 23 28 27 25 27 26 30 34 35 37 36 36 36 35 35 36 36 35
34 34 33 32 33 32 31 30 30 31 31 32 30 27 26 27 27 27 26 26 26 26 25 19 24 24 26 28 33 34 34 34 34 34 34 34 34 35
32 32 33 32 34 34 30 29 29 30 34 33 33 32 32 31 29 25 22 21 18 23 24 21 22 22 23 23 26 31 32 31 31 32 32 32 33 34
30 30 31 30 31 32 30 28 26 27 28 28 27 27 27 27 27 24 22 17 17 16 22 18 20 19 15 23 23 24 24 28 29 29 31 31 32 28
28 28 29 31 31 30 29 27 27 28 26 25 24 24 24 23 22 23 22 19 16 15 21 18 17 17 16 17 21 22 21 22 22 24 28 30 30 29
28 29 30 30 29 28 27 27 26 24 23 21 20 19 18 18 21 21 22 22 21 20 22 20 9 16 14 12 12 19 20 21 21 21 22 25 26 27
29 30 30 28 27 26 26 24 22 21 19 16 15 16 18 20 21 20 21 21 21 21 23 21 18 18 15 12 12 14 15 19 22 19 19 20 20 21
26 25 25 24 23 22 22 22 21 19 17 15 14 16 17 17 15 17 14 15 13 14 20 21 20 19 14 15 16 14 17 14 18 18 19 19 21 22
25 23 22 21 19 19 19 19 19 18 15 14 13 14 13 13 12 14 14 12 9 10 12 16 19 19 18 17 13 15 15 16 17 17 17 17 19 20
20 17 15 16 15 15 14 14 15 15 15 14 12 12 10 10 10 12 12 9 7 9 10 12 13 12 13 16 20 15 15 14 15 17 17 14 15 19
15 14 12 12 14 14 14 13 12 13 14 11 10 8 8 9 7 6 7 7 7 8 10 12 10 9 5 2 13 21 13 13 14 14 16 15 14 17
16 12 10 11 13 12 12 11 10 9 7 8 3 -1 -2 5 4 6 6 4 5 7 8 9 9 9 6 5 6 10 20 14 13 12 14 17 18 23
14 13 11 11 10 10 6 3 -2 -3 -6 -7 -2 -1 -11 1 1 3 4 3 4 6 5 7 10 14 13 12 7 8 12 20 19 15 15 14 14 16
12 10 10 9 7 5 -3 -8 -4 -3 -2 -1 -10 -13 -13 -6 -4 1 2 1 3 5 6 8 11 11 10 9 6 7 9 14 19 22 23 21 16 12
8 8 5 1 -0 -3 1 -4 -4 -13 -4 -4 -6 -5 -15 -7 1 1 0 2 3 3 4 5 8 10 8 8 7 8 10 12 15 16 19 24 25 25

GFSNE_sfc_temp_105.txt.gz
Temp
57 56 56 57 57 57 56 55 54 48 49 52 52 56 56 55 55 56 54 54 50 48 48 49 50 52 53 54 55 56 58 58 59 59 60 61 61 60
57 56 56 57 56 56 55 55 54 54 51 52 53 53 54 55 54 54 54 50 46 45 45 46 46 47 47 48 48 49 50 51 53 54 55 56 58 58
58 57 57 57 57 55 56 55 55 55 53 56 54 50 47 50 48 48 49 48 47 43 43 43 43 43 43 44 44 45 45 46 47 48 48 49 50 51
57 56 57 56 55 57 55 55 55 55 55 54 54 46 44 45 45 44 45 46 45 43 42 42 42 42 42 42 42 42 41 41 41 42 43 44 44 45
57 56 58 57 56 56 54 53 54 53 53 53 46 41 40 40 41 42 40 41 44 43 42 41 41 42 42 42 41 41 40 39 38 38 38 39 39 40
52 49 46 47 47 47 48 47 46 45 44 43 39 37 37 37 36 34 35 37 37 38 39 38 39 39 40 39 38 39 39 40 39 37 36 36 36 37
41 40 39 39 39 40 42 40 42 40 39 37 35 34 32 31 30 31 31 32 33 32 32 34 34 33 33 34 36 37 38 38 37 37 36 36 36 36
37 36 37 37 36 36 35 35 35 37 34 33 31 28 28 29 29 28 27 27 26 30 27 29 30 28 29 32 34 36 37 36 35 35 34 34 35 35
36 35 34 35 34 33 33 33 33 33 31 31 28 27 26 27 27 26 24 24 24 25 24 23 25 24 28 31 32 34 33 33 33 33 33 33 33 33
35 34 33 32 32 32 31 31 30 30 30 30 28 27 27 27 27 27 25 25 26 24 24 18 23 21 24 26 30 31 31 31 31 31 31 31 31 32
33 33 33 32 33 34 31 29 28 27 30 29 29 29 28 28 27 24 21 20 19 23 21 19 21 19 21 20 24 29 29 28 29 29 29 30 30 31
30 30 32 31 32 31 29 28 25 24 24 23 24 25 26 25 25 23 21 16 16 15 21 17 18 17 12 21 21 22 22 26 27 27 28 28 29 25
29 29 30 31 30 30 28 26 24 25 23 23 22 22 22 23 22 23 22 19 15 15 20 16 15 16 14 14 19 20 19 20 20 21 25 26 26 26
28 28 28 29 28 27 26 26 25 23 21 19 18 18 18 18 20 21 22 21 21 19 21 20 9 15 12 10 10 18 18 19 19 20 21 23 24 24
28 28 28 27 26 25 25 23 21 19 18 16 15 16 17 19 19 19 20 20 20 20 21 21 17 17 14 11 10 13 13 18 19 18 19 19 18 19
25 23 22 22 21 21 21 20 19 18 16 15 14 15 16 15 14 16 14 14 12 13 19 19 19 17 13 14 14 12 15 12 17 18 18 18 19 20
23 22 20 19 18 18 18 18 18 17 15 14 13 12 12 12 12 13 12 11 7 8 10 14 17 18 16 15 10 13 13 14 16 16 16 14 17 18
20 17 15 15 15 15 14 14 14 14 13 13 11 11 9 8 9 10 10 7 6 7 8 10 11 10 11 14 18 13 12 12 13 15 15 12 13 18
16 14 12 11 12 14 13 12 10 12 13 10 8 7 7 8 6 5 5 5 4 6 7 10 9 7 3 -0 11 19 12 12 12 12 14 13 12 15
15 12 10 10 12 11 11 10 10 9 8 7 4 -0 -3 3 2 4 4 1 3 5 6 7 7 7 3 2 4 9 19 13 12 11 12 15 18 22
14 12 10 10 10 9 6 5 2 0 -2 -4 -1 -2 -13 -2 -3 0 0 0 0 4 3 5 7 11 10 10 5 6 11 19 18 15 15 14 14 16
12 11 10 9 7 5 0 -5 -4 -4 -3 -3 -13 -15 -16 -9 -7 -4 -4 -3 0 2 3 6 9 9 8 6 4 5 9 13 20 23 23 22 16 11
7 8 6 5 2 0 3 -2 -2 -13 -6 -6 -7 -7 -18 -11 -3 -3 -3 -1 1 1 2 3 5 7 6 6 6 7 9 12 15 15 20 26 26 26

GFSNE_sfc_temp_111.txt.gz
Temp
60 61 62 61 62 64 64 65 62 53 54 60 63 61 61 59 57 63 55 45 45 45 46 47 48 48 48 48 48 48 48 48 49 49 49 50 50 51
61 61 62 61 61 61 61 60 62 57 52 60 61 56 56 55 53 51 47 45 43 43 43 44 45 45 45 44 44 44 45 45 45 46 46 46 47 47
60 63 60 60 59 60 59 57 57 56 52 58 58 55 53 52 48 47 45 42 41 42 42 42 42 41 41 41 41 42 42 42 42 42 42 42 43 44
58 57 57 56 57 59 56 56 56 55 54 53 54 46 44 43 42 42 43 41 39 40 40 41 40 40 39 39 39 40 40 39 39 39 38 39 39 40
57 57 57 56 56 57 56 57 56 55 55 54 52 42 39 41 39 39 39 38 39 39 39 38 37 37 37 37 37 38 39 38 37 36 36 36 37 37
58 57 57 56 55 56 55 55 53 53 51 49 42 37 37 36 35 35 32 32 31 36 36 35 34 35 36 36 36 37 36 36 35 35 35 35 34 34
49 46 45 44 42 44 48 48 48 47 45 43 37 34 32 30 30 31 31 31 28 29 31 32 31 31 34 36 35 36 34 34 34 34 33 33 33 33
41 40 40 38 37 36 36 35 39 45 41 37 32 30 28 29 29 28 28 28 27 27 26 29 30 34 35 36 31 32 33 33 32 32 32 32 32 31
39 37 36 36 36 35 33 32 32 32 32 33 28 27 26 28 27 26 26 26 25 25 28 29 29 30 34 35 31 31 32 32 31 31 31 30 30 30
39 37 35 33 33 32 30 28 28 28 28 28 26 25 26 27 27 27 26 28 28 28 29 26 31 31 34 35 30 30 32 30 30 30 30 30 30 30
34 34 33 32 33 34 29 27 26 27 30 29 28 28 27 27 27 27 24 25 24 26 27 27 29 28 30 31 35 31 30 29 29 29 28 29 29 29
32 32 33 32 31 31 29 27 23 22 22 22 22 23 24 24 24 25 24 21 22 24 26 25 26 25 24 32 31 32 32 30 29 28 28 28 28 30
31 30 31 31 31 30 29 26 23 23 22 22 22 22 23 23 24 26 27 27 25 24 26 25 24 24 24 24 27 31 31 30 30 31 29 29 28 28
29 29 30 30 29 28 27 26 25 22 22 21 19 19 19 22 25 26 27 27 27 25 26 25 21 22 20 20 22 28 29 30 30 30 30 29 28 28
28 29 29 28 27 25 25 23 21 21 20 19 18 20 23 24 24 23 24 25 25 25 26 25 23 23 22 20 21 23 23 28 30 28 28 27 27 28
24 21 21 21 21 21 21 21 21 21 20 18 19 21 22 22 21 22 21 22 23 23 24 25 24 23 20 23 23 22 26 23 28 27 26 26 29 31
21 20 19 19 19 18 19 19 19 21 20 20 19 19 19 20 19 21 20 21 20 20 22 24 25 25 24 23 20 25 25 25 26 24 24 24 29 32
20 18 17 17 17 17 17 17 18 18 18 18 18 18 18 18 19 19 19 19 18 19 20 21 21 21 24 26 23 23 23 22 23 24 25 23 26 33
20 19 17 17 18 18 18 17 15 16 17 17 17 16 17 17 18 17 16 17 17 18 19 21 20 18 15 14 23 23 19 19 21 22 25 25 24 30
20 18 17 18 18 17 17 16 16 16 15 15 14 13 14 15 15 15 16 13 15 17 18 21 19 16 12 12 12 18 22 19 20 21 24 28 32 30
17 17 18 18 18 18 15 14 13 12 12 12 12 11 11 14 13 13 13 8 9 16 16 17 17 15 19 19 16 19 22 24 23 21 24 25 30 31
18 17 17 17 15 14 14 13 12 12 12 12 10 10 11 13 12 11 12 12 14 14 15 17 19 19 18 16 15 15 20 23 27 28 27 25 28 25
15 16 15 15 15 15 15 14 13 12 12 11 12 12 10 11 12 13 13 12 12 12 14 14 16 18 16 16 14 17 18 21 25 26 30 30 30 30

GFSNE_sfc_temp_114.txt.gz
Temp
68 70 71 72 71 70 71 70 66 62 63 60 65 66 60 59 57 63 55 45 45 45 46 48 48 48 47 47 47 47 48 48 48 48 48 48 49 49
64 64 67 66 66 67 67 67 69 64 61 60 60 60 55 54 50 52 48 45 43 43 43 44 43 43 43 43 44 45 45 44 44 44 44 44 45 45
65 65 65 66 65 64 63 63 63 62 60 62 62 54 50 49 46 45 43 43 42 42 41 41 40 40 40 40 41 42 41 41 41 41 41 41 41 42
63 63 65 65 64 63 62 62 62 63 60 57 54 47 44 43 43 41 40 40 40 41 40 40 39 38 38 38 40 40 39 38 38 38 38 38 39 39
61 63 64 65 64 63 63 59 59 56 56 54 52 42 41 41 39 38 37 37 39 39 37 36 37 38 37 37 38 37 37 36 36 36 36 36 36 36
59 59 58 58 58 56 55 56 55 54 54 54 48 39 37 36 38 34 32 33 32 36 35 34 33 33 36 36 36 36 35 35 35 35 34 34 34 34
54 54 51 49 45 47 53 54 54 54 52 49 40 35 33 32 33 33 32 29 27 29 31 32 31 33 36 38 37 34 34 34 34 34 33 33 33 33
47 42 41 39 37 36 36 35 37 48 46 41 35 34 30 30 31 31 31 29 26 27 27 30 32 36 40 42 31 32 33 34 33 33 32 32 32 32
42 39 38 37 36 35 34 33 32 33 33 37 34 31 29 29 29 27 27 28 26 28 31 32 37 36 39 39 32 31 32 33 32 32 32 31 31 31
40 38 36 35 36 35 32 30 29 29 30 30 29 27 28 29 30 30 29 26 27 29 33 31 35 33 39 42 34 33 34 33 32 32 32 31 31 31
38 37 36 33 34 35 31 28 27 27 31 31 30 29 29 29 29 29 27 28 26 27 32 34 36 33 36 38 40 36 34 34 33 32 32 32 31 31
34 34 34 33 32 33 31 27 23 23 23 23 24 24 25 26 27 29 29 26 27 30 31 32 33 32 28 37 37 38 38 36 34 34 33 33 32 34
32 31 32 32 31 31 29 26 23 23 22 23 23 23 24 26 31 32 34 32 30 29 27 29 30 32 30 30 34 38 37 37 37 38 35 34 32 32
30 30 30 31 29 28 27 26 25 23 23 21 21 21 22 27 30 31 31 31 32 31 30 30 28 29 27 27 29 34 36 37 37 36 36 35 34 34
30 30 30 29 28 26 26 25 23 23 23 22 22 24 27 29 30 29 30 31 30 29 30 30 29 29 28 26 27 30 30 35 37 35 35 35 35 37
25 23 23 23 23 22 22 23 24 26 25 24 24 25 27 27 26 28 27 28 29 29 29 31 30 30 27 29 29 28 33 29 34 34 33 34 37 40
22 21 20 20 19 19 20 21 22 23 22 23 22 23 24 24 24 26 27 28 27 28 30 32 32 33 32 31 27 31 31 31 31 31 31 32 36 38
22 20 19 20 19 20 20 19 21 20 22 24 23 24 25 25 25 26 28 28 27 27 27 28 29 28 31 33 30 28 29 27 28 31 32 30 32 38
24 22 20 20 21 21 22 21 18 20 23 25 24 24 25 24 25 24 24 26 25 26 27 29 27 25 22 20 29 23 24 25 26 27 29 29 29 34
25 24 23 23 23 24 23 22 22 22 22 22 22 22 22 23 23 23 23 21 23 25 26 28 27 23 19 18 19 25 27 25 25 25 27 30 34 34
25 25 25 25 24 23 22 22 20 20 20 20 21 20 21 23 22 22 22 16 16 24 23 24 25 21 25 26 22 25 28 30 28 25 26 26 30 34
24 23 23 22 20 19 19 19 18 19 20 20 19 20 21 22 20 20 20 20 22 22 23 25 27 26 25 23 22 22 26 29 31 32 30 27 27 27
21 21 21 20 20 20 21 20 21 20 20 20 20 19 19 20 20 21 20 21 20 19 21 21 24 26 24 24 22 23 24 26 30 31 33 32 31 31

GFSNE_sfc_temp_117.txt.gz
Temp
61 62 67 71 73 74 74 72 67 61 60 63 62 66 67 63 57 55 47 45 45 46 47 47 47 47 47 47 48 48 47 47 47 46 46 46 47 47
63 63 66 68 68 70 71 70 69 64 58 62 63 57 57 52 48 49 45 44 43 43 43 43 43 43 43 44 44 44 44 44 43 43 43 44 44 45
61 65 66 67 65 67 70 69 65 65 60 59 56 53 50 47 44 44 43 42 41 41 41 41 40 40 40 41 42 41 41 40 40 40 41 41 42 42
60 62 65 67 66 65 64 64 64 63 61 57 55 48 45 46 43 40 40 41 39 39 39 39 39 39 39 40 39 38 38 37 37 38 38 38 39 39
62 64 66 67 66 64 63 62 63 61 62 59 52 44 42 41 38 38 37 38 39 38 37 36 37 38 38 38 38 37 36 36 36 36 36 35 35 36
65 64 65 64 61 61 61 63 62 60 57 54 48 41 39 39 37 33 31 33 32 36 34 33 33 33 37 37 37 35 35 36 35 35 34 34 34 34
55 56 57 55 53 55 57 58 57 53 51 52 43 37 34 33 34 34 31 28 27 29 31 32 31 33 35 37 36 35 34 35 35 34 34 33 33 33
53 46 44 42 39 38 37 37 41 53 53 51 40 37 33 33 32 33 28 27 25 28 29 30 32 34 38 38 33 33 33 34 34 34 33 33 33 33
50 44 40 39 38 37 34 34 33 34 32 41 36 33 31 31 32 31 31 30 26 27 30 30 34 33 39 42 34 32 33 35 34 34 34 33 33 33
46 45 42 36 36 35 33 30 29 30 30 31 31 30 31 32 32 32 28 26 27 29 32 28 35 36 39 41 36 34 36 35 35 35 34 33 33 33
38 38 38 35 35 36 31 28 28 28 32 32 32 31 31 32 32 30 26 26 24 25 33 33 35 34 36 37 40 38 38 37 36 36 35 35 35 34
34 33 34 34 34 34 31 28 25 24 24 24 24 26 28 29 29 30 30 27 26 29 30 32 32 32 30 37 38 38 38 37 37 37 37 37 35 35
32 31 32 32 33 32 30 26 23 24 23 23 23 23 26 27 28 29 31 33 31 27 28 31 31 31 30 30 34 37 37 37 37 38 38 37 36 36
30 30 30 31 30 28 27 27 26 24 23 22 21 21 24 27 29 30 32 33 33 31 30 30 28 28 27 27 29 34 35 37 38 37 37 37 37 38
29 30 30 29 28 27 27 26 24 23 23 22 21 22 28 29 30 30 31 32 30 30 31 31 29 29 28 26 27 30 30 35 37 36 35 35 36 38
26 24 24 24 24 24 24 25 24 24 24 23 26 28 29 27 27 28 26 28 28 28 30 32 32 32 28 30 30 29 33 30 35 34 34 35 37 39
23 22 21 21 20 20 21 22 23 23 23 24 24 26 27 26 26 29 29 30 28 29 30 33 34 34 33 32 28 31 31 30 31 31 32 32 36 38
22 21 20 21 20 22 21 21 22 23 24 25 25 26 25 25 25 27 29 28 27 28 29 30 30 29 31 32 32 29 29 27 28 29 30 28 30 37
25 24 23 23 22 23 23 23 22 24 25 25 26 26 26 26 27 26 26 27 26 27 29 30 29 25 22 20 29 26 25 26 26 26 28 29 29 33
27 24 24 26 26 25 25 24 26 26 25 25 25 25 26 26 25 25 24 23 25 26 28 30 28 24 19 19 19 25 30 25 26 24 25 29 32 34
29 28 28 28 27 27 26 25 23 24 24 24 23 23 24 25 23 24 22 20 19 26 25 25 27 24 28 28 23 25 30 32 30 27 27 26 28 31
28 28 27 26 26 25 23 21 21 22 22 22 22 23 23 24 22 22 21 22 23 23 24 26 29 29 27 25 23 24 27 30 33 33 32 30 28 24
24 25 25 24 24 23 23 24 23 22 22 22 22 21 22 21 22 23 23 23 22 21 23 22 25 27 26 26 24 24 25 26 29 30 32 35 31 30

GFSNE_sfc_temp_120.txt.gz
Temp
61 60 62 63 65 65 65 64 62 54 57 57 55 58 58 55 49 48 47 46 46 46 47 47 48 48 49 49 48 48 47 47 47 46 46 47 47 47
61 60 61 60 62 63 62 63 63 60 53 56 55 53 51 49 47 45 45 44 43 43 43 43 44 44 45 45 45 44 44 44 44 43 44 44 44 45
61 60 59 60 59 59 60 61 59 60 54 54 54 50 47 44 43 43 43 41 41 41 41 41 41 42 43 43 42 41 41 40 40 41 41 41 41 42
59 59 59 60 59 61 59 59 58 57 57 52 51 46 45 43 41 40 41 40 38 40 39 39 39 40 41 40 39 39 38 38 38 38 38 38 38 39
59 59 59 59 59 60 60 61 58 57 58 55 49 44 41 40 37 38 37 36 38 39 38 38 39 39 39 39 38 37 37 37 36 36 36 35 36 36
59 60 59 60 59 58 58 57 57 56 55 54 46 41 39 39 37 34 33 35 34 37 35 34 35 36 38 38 37 36 36 36 36 35 35 34 34 35
55 57 57 55 52 54 56 55 55 54 52 50 43 38 34 35 34 34 32 29 28 30 31 31 31 32 33 35 34 35 35 35 35 35 34 34 34 34
51 48 46 45 42 41 39 37 41 51 50 48 42 41 35 35 35 33 29 27 25 29 30 30 31 32 35 35 35 35 34 34 35 35 35 35 34 34
49 45 43 40 39 37 35 34 34 34 32 43 39 37 34 33 34 31 31 30 26 26 29 28 31 32 36 38 36 35 34 36 35 35 35 35 34 35
48 47 44 38 37 36 33 31 30 30 31 32 33 32 33 34 35 33 28 25 27 29 31 27 31 31 34 35 36 36 36 37 36 36 36 35 36 35
38 39 39 36 36 37 33 29 29 29 33 34 34 34 33 33 32 30 26 26 23 25 30 29 30 30 32 32 33 38 38 37 37 37 37 37 36 35
33 33 34 34 33 33 31 29 26 25 25 26 26 28 30 30 31 32 31 25 23 22 28 27 29 28 25 32 32 33 34 37 37 38 38 38 37 30
32 31 32 33 33 32 30 26 24 24 24 24 25 25 25 26 27 28 28 28 24 23 26 27 27 27 26 27 31 32 32 31 30 33 37 37 37 36
29 30 30 31 30 29 27 28 27 25 24 23 22 21 21 22 25 27 28 28 29 27 28 29 25 25 24 23 25 30 30 30 30 30 30 34 35 36
29 30 30 30 29 27 28 27 25 25 23 21 20 21 25 27 28 28 29 29 29 29 30 29 27 27 25 23 23 25 26 29 30 27 28 28 28 29
27 25 25 25 26 25 25 25 25 24 22 21 21 22 24 24 23 25 24 26 24 25 30 30 30 29 25 26 26 25 27 23 26 25 27 27 28 29
24 23 22 21 21 21 22 22 22 23 21 22 22 22 22 23 25 25 26 26 24 25 26 29 31 31 29 28 22 25 25 24 23 25 26 25 27 28
23 21 20 21 20 20 20 21 22 22 22 23 23 23 23 23 24 26 27 25 23 24 25 25 25 23 26 27 30 24 21 20 20 25 25 22 24 28
23 22 21 21 21 21 21 22 21 22 24 23 22 21 23 22 21 20 20 21 22 22 23 23 23 20 17 10 24 28 19 20 20 21 21 21 22 25
25 22 21 22 22 22 21 21 22 22 23 22 20 19 20 21 20 20 20 17 19 22 21 23 20 19 13 12 13 19 30 19 17 16 19 22 25 30
25 24 23 23 22 22 20 20 19 19 19 18 17 19 18 19 18 19 17 17 18 22 21 21 21 21 21 19 11 15 20 31 29 19 18 20 21 22
24 23 23 22 21 20 18 17 19 18 16 16 15 15 16 16 15 16 15 14 18 17 19 21 25 23 21 20 16 11 16 18 28 31 32 30 23 19
21 21 20 20 20 19 18 17 17 14 15 15 15 15 13 12 16 15 15 16 17 16 17 16 20 21 21 21 16 13 14 17 23 20 22 30 32 32

GFSNE_sfc_temp_123.txt.gz
Temp
60 61 61 62 63 64 65 63 61 54 56 54 53 53 51 50 48 49 48 48 47 47 48 49 51 52 51 51 50 49 48 48 48 47 47 47 47 47
61 61 61 61 60 60 63 64 64 60 54 54 54 50 49 47 46 45 46 45 44 44 45 46 47 47 47 46 46 45 45 45 44 44 44 44 45 45
60 60 60 61 61 59 59 63 62 61 56 52 51 46 45 43 43 43 43 41 41 42 42 43 43 44 43 42 42 42 41 41 41 41 41 41 42 42
60 60 60 60 58 58 57 60 62 59 56 50 48 46 43 42 41 40 40 40 39 40 40 40 41 41 41 40 39 39 39 38 38 38 38 38 39 39
59 59 59 59 57 57 57 57 58 58 57 51 48 43 41 40 39 38 37 36 39 40 39 39 40 40 39 39 38 38 37 37 36 36 36 35 36 37
59 60 60 59 57 58 57 56 54 55 54 52 47 41 40 40 37 34 33 34 34 37 36 36 38 39 39 38 37 37 37 36 36 35 35 35 35 35
56 58 57 56 52 55 57 54 54 53 53 50 44 38 36 35 36 35 33 31 30 32 31 31 31 31 32 34 35 34 35 36 36 35 35 35 34 35
52 50 54 50 47 45 45 44 46 52 52 48 41 40 36 35 35 35 29 28 27 30 30 29 30 29 31 32 34 34 35 35 36 35 36 35 35 35
49 47 43 43 42 39 36 35 34 35 33 45 40 39 36 36 36 33 31 30 27 27 31 27 29 30 34 37 37 36 35 36 36 36 36 36 35 36
47 46 43 39 38 37 35 32 32 32 32 33 33 33 34 36 38 36 31 26 27 28 29 25 29 29 33 34 37 37 36 37 36 37 37 36 36 36
38 41 40 37 37 39 34 31 30 31 34 35 34 34 34 33 32 30 27 26 22 24 28 28 27 29 30 28 33 37 37 37 37 37 37 38 36 36
34 34 35 35 35 35 35 32 27 26 27 28 28 29 30 30 31 32 30 25 23 22 24 25 26 27 25 30 31 32 32 37 37 38 38 38 37 32
32 32 32 33 34 33 32 30 27 26 25 26 26 26 26 26 26 27 29 28 23 21 25 27 26 26 26 26 30 31 31 31 30 32 35 36 37 36
29 30 31 32 31 30 29 29 27 26 25 24 23 22 23 23 23 24 25 25 27 26 27 28 24 24 24 22 23 28 28 29 29 28 29 32 34 34
30 31 31 31 30 28 28 28 26 25 23 22 20 21 22 23 26 26 27 28 28 29 30 29 27 27 25 23 24 25 26 28 28 27 27 27 27 28
28 26 26 26 27 26 25 25 24 24 22 21 21 22 23 24 23 25 23 24 24 24 30 30 30 29 25 26 26 24 25 22 25 24 25 26 28 28
25 24 23 23 22 22 22 22 23 23 22 22 22 22 23 24 24 25 26 25 23 23 24 28 30 29 27 27 21 24 23 23 22 24 25 24 27 27
23 21 21 21 21 21 21 20 22 22 22 23 23 23 23 23 24 25 26 23 22 22 21 23 22 20 25 27 29 23 21 21 21 24 25 21 23 26
22 21 20 21 21 22 22 22 21 23 24 23 22 22 22 22 21 19 18 19 18 18 22 22 18 16 14 5 22 29 19 20 19 19 22 20 20 24
23 21 20 21 21 21 21 21 21 21 21 19 18 17 16 18 17 17 16 12 14 18 19 19 17 17 13 10 10 16 29 19 16 16 19 20 23 28
22 21 21 21 20 20 19 18 19 17 16 16 16 16 13 17 13 13 13 12 13 19 18 17 19 20 19 17 8 11 18 30 27 16 15 14 17 19
21 21 20 19 18 18 17 18 17 16 16 16 12 12 11 14 12 12 11 11 13 13 17 18 22 22 18 18 14 7 14 16 25 29 30 28 20 16
18 19 18 18 18 17 18 16 16 14 14 13 13 11 9 9 12 12 11 13 14 12 14 13 16 17 17 18 13 10 10 11 17 19 17 27 29 30

GFSNE_sfc_temp_126.txt.gz
Temp
61 60 61 61 61 62 62 61 59 53 55 53 51 50 50 50 50 50 49 48 48 49 50 51 53 53 53 53 53 52 51 49 48 48 48 48 48 48
61 60 60 61 61 59 59 61 63 60 55 53 51 48 48 47 47 47 46 47 46 46 47 48 49 50 49 49 48 47 46 46 45 45 45 46 46 45
61 60 60 60 60 60 59 60 61 61 56 50 48 45 44 43 42 43 43 42 43 44 44 44 45 45 44 44 44 43 42 42 42 42 43 43 43 43
60 60 60 61 59 60 59 58 59 61 58 49 45 44 42 42 40 39 39 40 40 41 41 42 42 41 41 40 39 39 39 39 39 39 39 39 40 40
59 59 60 60 59 59 59 57 58 59 58 50 46 42 40 40 38 37 37 37 39 40 40 41 41 40 39 38 38 38 37 37 37 36 36 36 36 37
58 59 60 59 59 59 59 58 56 56 54 52 48 42 40 39 38 34 33 35 33 36 36 37 38 39 38 37 37 37 37 36 35 35 35 35 35 35
57 58 58 57 54 56 58 55 56 54 52 50 45 39 36 36 35 35 33 32 31 32 31 31 32 32 34 35 35 35 35 36 36 35 35 35 35 35
53 53 54 50 50 45 45 45 53 54 51 48 46 43 38 37 37 36 31 29 28 32 30 29 31 29 32 33 34 33 36 36 36 35 35 35 35 35
49 46 46 46 43 40 37 37 36 37 41 48 44 44 38 39 38 35 33 31 29 30 31 26 30 28 31 34 34 35 36 36 36 36 36 35 36 36
47 46 41 39 41 39 37 34 33 33 34 35 39 35 36 39 41 38 35 28 29 29 31 25 28 29 32 33 33 37 37 37 37 37 37 36 36 36
39 41 40 37 37 40 36 33 32 32 35 35 35 35 35 35 34 33 29 29 23 24 26 27 27 27 28 28 31 37 37 37 37 37 37 37 37 36
34 34 35 35 35 37 36 34 30 28 29 29 28 29 30 32 32 34 33 29 24 23 26 25 25 26 23 28 29 31 32 37 37 37 38 38 37 32
33 32 33 34 34 34 35 34 30 28 28 27 27 26 26 26 27 28 29 30 25 22 26 27 25 26 26 25 29 31 31 31 30 31 35 35 36 35
30 31 32 33 33 32 30 30 29 28 27 26 24 23 23 23 24 26 26 27 28 27 28 27 24 25 24 24 25 28 28 29 29 29 29 31 32 33
31 32 32 31 31 29 30 29 27 26 25 23 21 21 22 23 24 24 26 26 28 28 29 28 26 26 25 23 23 24 24 26 26 25 26 26 26 27
27 26 26 26 26 25 25 25 24 25 24 22 21 22 23 23 22 24 24 25 24 24 30 30 30 28 23 25 25 23 24 21 23 23 24 24 26 26
25 25 24 23 22 22 22 23 23 23 22 22 22 22 22 24 24 26 26 25 23 23 24 27 28 28 27 26 20 22 21 21 20 22 24 22 25 26
24 22 21 21 21 21 21 21 22 22 22 23 23 23 23 24 24 24 25 23 21 22 21 21 22 20 23 25 28 21 17 18 17 22 24 19 21 25
22 21 21 21 21 21 22 22 21 22 24 23 23 22 22 22 22 21 21 21 20 20 19 19 17 14 13 3 20 28 17 18 19 18 20 19 18 23
22 21 20 21 21 21 22 21 22 22 21 21 20 19 19 20 19 19 18 15 18 18 17 16 15 15 11 8 8 14 27 16 13 12 14 18 22 28
21 20 20 20 20 20 20 19 19 18 18 18 17 17 15 17 16 16 16 15 16 18 16 16 17 18 17 13 6 9 15 27 24 13 13 12 15 17
20 19 19 19 19 19 18 18 17 16 15 15 13 14 14 15 13 13 11 12 13 13 15 16 20 19 16 15 10 2 11 14 23 28 28 25 14 9
17 18 17 17 18 17 17 16 15 15 15 15 14 13 12 12 13 12 11 12 12 11 12 11 14 15 14 15 10 8 8 8 14 15 17 26 27 27

GFSNE_sfc_temp_129.txt.gz
Temp
61 60 61 62 61 60 60 58 56 51 51 52 51 51 51 50 50 51 50 49 49 50 51 52 54 54 54 55 55 54 53 52 50 49 49 49 48 48
61 60 60 61 61 60 59 58 58 57 53 53 51 48 49 48 48 48 48 48 47 47 47 48 50 51 51 50 50 49 48 47 47 46 46 46 46 46
61 60 60 61 60 60 59 59 57 57 54 48 47 46 45 45 43 43 44 44 45 45 45 46 46 46 46 46 45 45 44 44 43 43 44 44 44 44
60 59 59 60 59 59 58 57 57 57 56 48 45 43 42 42 41 40 40 41 41 44 44 43 43 43 42 41 41 41 40 40 40 40 41 41 41 41
60 59 60 60 59 59 59 58 58 57 57 48 45 42 40 40 38 38 37 37 40 43 42 41 41 40 39 39 38 37 37 38 37 37 37 37 37 38
57 58 59 59 59 59 59 59 58 56 56 51 47 43 40 39 38 35 33 35 34 37 39 39 39 39 38 37 36 37 37 36 36 35 35 35 35 36
55 56 57 56 52 54 59 59 58 56 53 51 45 39 37 36 36 35 33 32 32 32 32 34 35 35 35 36 36 37 36 35 36 36 36 35 35 35
54 54 55 50 49 45 45 48 54 56 53 49 47 42 39 38 37 35 32 30 29 32 32 29 32 32 33 33 35 34 35 36 36 36 36 35 35 35
52 50 47 45 45 42 39 41 42 44 48 52 47 45 39 40 38 35 34 33 31 30 31 27 30 29 32 34 34 35 36 36 36 36 36 36 36 36
48 47 43 40 39 38 36 35 35 35 38 41 48 44 43 43 41 40 37 30 30 31 31 25 29 28 30 31 33 33 33 36 37 36 37 36 36 36
39 40 40 37 38 40 37 33 33 32 35 37 37 38 39 40 37 35 32 31 25 26 28 27 27 27 28 29 31 33 32 36 37 37 37 37 37 36
34 34 35 35 36 37 36 36 33 32 32 32 32 31 33 33 34 36 35 35 25 24 27 26 26 26 23 28 29 30 30 36 37 37 38 38 37 31
33 32 33 34 34 35 35 34 32 31 30 29 28 27 27 28 28 29 31 32 27 25 28 28 26 26 25 25 27 28 30 31 31 32 36 35 35 34
31 32 32 34 33 33 32 32 31 30 29 27 26 24 24 25 26 27 28 28 29 28 29 29 26 26 24 23 23 28 28 29 29 28 28 30 32 34
32 32 32 32 31 30 30 30 29 28 27 24 22 22 24 25 26 26 27 27 27 27 28 28 28 27 26 24 24 24 24 26 26 24 26 26 26 26
25 25 25 25 25 25 25 25 25 26 25 23 22 22 24 24 23 24 23 23 23 24 29 29 29 28 24 25 24 22 24 20 24 23 24 24 26 26
26 25 24 24 23 23 23 23 24 24 23 23 23 22 22 22 22 24 25 25 23 23 23 26 28 28 27 25 21 22 21 22 20 21 23 22 24 25
25 23 22 22 22 22 21 21 22 23 23 23 23 23 22 23 24 25 25 23 21 21 21 21 23 22 23 25 28 22 19 19 17 22 22 18 20 24
22 21 21 21 21 22 22 22 21 22 24 23 23 23 23 23 23 22 22 21 19 20 20 21 20 19 16 10 21 28 17 19 17 16 18 18 17 22
22 21 20 21 21 21 21 21 21 22 22 22 21 21 22 22 21 20 19 18 18 19 18 19 17 16 11 10 13 16 26 16 13 11 13 16 20 27
20 20 20 20 20 20 20 20 20 20 20 20 19 19 19 19 17 18 18 17 18 18 16 16 16 17 16 14 9 11 15 26 22 14 13 10 15 16
19 19 19 19 19 19 19 19 19 18 17 17 15 15 16 17 16 16 15 15 14 14 15 15 19 18 16 15 9 2 11 12 21 26 27 23 11 7
16 17 17 17 18 18 18 17 16 16 16 16 15 14 15 14 14 14 13 13 12 11 11 11 14 14 13 14 9 7 7 7 12 13 14 24 26 27

GFSNE_sfc_temp_132.txt.gz
Temp
61 61 61 61 61 61 60 60 57 51 51 53 52 54 57 56 55 56 57 52 51 50 51 52 54 56 56 57 57 57 57 56 54 53 52 51 50 50
61 60 60 61 61 61 59 59 59 58 53 54 52 50 51 49 50 52 51 50 48 48 48 50 51 52 52 52 52 52 51 51 50 49 48 48 47 47
61 60 60 61 60 60 59 59 58 58 55 48 47 47 46 46 45 47 48 47 47 46 47 47 47 48 48 48 48 48 48 47 46 46 46 46 46 46
60 60 60 60 59 60 59 59 58 58 57 50 45 43 43 44 43 43 43 45 44 45 45 45 45 45 44 44 44 43 43 42 43 43 43 43 44 44
60 60 60 60 59 60 60 58 58 58 57 51 45 42 40 41 38 39 40 41 43 43 42 42 43 42 42 41 41 40 39 39 38 39 39 39 39 40
58 58 58 59 59 59 58 58 58 57 56 54 48 43 41 40 41 37 35 36 37 39 40 40 40 40 40 39 38 38 37 36 37 36 36 36 36 38
55 56 56 55 51 52 57 57 58 57 56 51 48 41 39 37 39 37 35 33 32 34 35 36 36 36 36 37 36 36 36 36 36 36 36 36 36 36
53 53 53 49 48 44 43 44 51 57 55 52 48 44 42 40 39 37 32 33 31 33 33 30 34 32 33 33 34 35 37 37 37 37 36 36 36 36
52 51 49 48 44 46 43 39 40 41 46 55 49 48 42 41 40 37 35 36 32 32 34 28 32 30 32 34 35 36 37 37 37 36 36 36 36 36
49 48 47 43 39 39 37 35 34 35 40 49 52 49 46 43 42 42 38 32 32 32 32 27 29 28 31 32 34 36 36 36 36 36 36 36 36 36
40 39 42 39 38 39 35 33 33 32 36 38 40 41 41 41 41 37 34 34 27 28 29 29 28 27 29 30 32 34 34 35 34 36 37 37 37 36
34 34 35 35 36 37 36 35 34 32 33 34 34 35 36 36 36 41 38 36 28 26 28 27 27 27 24 29 30 31 31 32 34 36 37 38 38 36
33 32 33 34 35 36 35 34 32 33 32 33 32 32 31 32 32 33 34 37 33 27 30 29 27 26 26 25 28 30 30 30 33 36 37 37 36 36
32 32 33 34 34 33 32 32 32 32 31 30 29 27 27 27 28 29 29 30 30 30 30 30 27 26 25 24 24 28 28 30 32 32 32 32 32 33
32 32 32 32 31 30 31 30 30 30 29 26 24 24 25 26 27 27 27 27 28 29 29 30 29 27 27 25 24 25 25 28 30 30 30 30 30 31
26 26 26 26 26 26 26 26 27 27 25 24 23 24 25 25 24 26 25 25 24 24 28 29 29 29 26 27 26 25 27 24 27 27 28 29 30 30
27 26 25 25 23 23 24 24 25 25 24 24 23 23 23 23 23 24 24 24 23 22 23 27 30 30 29 29 24 26 25 25 26 26 27 26 27 29
25 23 22 22 22 22 22 22 23 24 24 24 23 23 23 22 22 23 24 23 22 23 23 25 26 25 26 27 29 24 23 24 24 26 25 23 24 29
22 21 21 21 21 22 22 22 22 23 25 24 23 23 23 23 23 22 22 22 21 22 22 23 24 23 20 16 23 29 23 23 22 22 23 23 23 26
22 21 21 21 21 21 22 22 22 22 23 23 22 23 23 23 22 21 21 20 20 21 20 21 21 21 20 19 18 21 27 22 21 20 21 23 25 26
20 20 20 20 20 21 21 21 21 21 21 21 21 21 21 21 20 20 19 19 20 20 18 18 19 20 20 20 18 18 20 25 24 20 21 19 20 21
19 19 20 20 20 20 20 20 20 20 19 19 18 18 19 20 19 18 18 17 17 17 17 19 21 22 20 19 15 13 17 18 22 25 25 24 21 17
16 16 16 17 19 19 19 18 17 17 17 17 17 16 17 15 17 17 16 16 16 15 16 15 17 18 17 16 14 13 13 14 17 17 19 23 24 26

GFSNE_sfc_temp_138.txt.gz
Temp
73 73 74 74 76 77 77 74 70 62 62 69 64 66 67 66 65 63 61 57 52 51 52 54 55 57 57 58 59 59 61 61 60 61 61 60 59 58
68 71 71 71 69 68 70 74 73 69 63 70 73 72 68 64 64 64 62 57 50 50 50 51 52 54 55 55 55 56 57 57 58 58 57 57 56 55
65 65 67 67 66 67 67 69 69 70 62 67 66 72 68 65 62 62 63 60 61 48 48 48 49 51 51 52 51 53 53 54 55 55 55 54 54 53
64 64 64 65 65 67 65 65 64 66 63 61 62 59 61 62 62 57 55 56 57 49 47 47 48 48 49 49 48 49 50 50 50 51 51 51 50 50
64 63 64 64 64 65 66 67 66 67 65 62 59 54 52 51 48 45 46 44 45 48 45 45 46 47 47 47 47 47 46 45 45 45 45 45 46 47
64 63 63 62 63 64 66 66 66 65 64 60 58 49 48 48 48 44 42 40 40 42 43 45 45 46 46 46 45 45 44 43 42 42 41 40 41 43
63 64 66 63 55 59 67 67 68 64 62 59 55 47 43 42 42 45 44 39 35 37 39 41 43 43 44 43 43 42 41 41 39 39 38 37 37 39
63 63 62 52 52 46 45 44 50 58 58 57 56 48 48 47 47 44 38 35 35 36 36 34 38 36 37 39 39 39 39 38 37 37 36 36 36 38
63 62 61 60 54 60 45 41 41 39 37 50 51 54 51 50 49 43 39 41 41 36 37 32 33 32 33 36 37 37 36 36 36 35 34 34 34 36
61 62 61 57 54 53 48 46 47 48 45 43 44 46 50 53 51 48 43 35 33 35 35 32 32 31 32 33 36 36 36 35 35 34 34 33 33 34
55 49 52 51 40 41 47 43 43 41 38 38 38 37 38 41 46 40 36 36 32 33 33 32 30 30 31 32 33 34 34 34 34 33 33 33 32 32
43 38 35 38 36 37 46 46 43 39 37 37 36 36 37 37 37 44 39 38 33 32 33 30 30 29 26 31 32 32 32 33 33 33 33 33 33 34
38 36 35 35 36 37 36 39 39 35 34 35 35 35 34 34 35 35 36 39 35 33 34 33 31 29 28 27 30 31 31 31 32 32 33 33 33 34
32 32 32 33 33 33 33 33 34 35 36 34 33 31 30 30 31 32 33 33 34 34 33 33 31 30 28 26 26 29 30 31 32 32 33 33 33 35
30 31 31 31 31 30 30 31 32 33 33 31 28 27 28 30 31 31 31 31 31 31 32 32 32 30 29 27 26 27 28 30 33 33 33 33 33 35
30 30 29 28 29 29 29 29 28 29 28 27 25 27 29 29 28 30 28 28 28 27 30 32 32 31 28 29 29 28 29 28 31 32 32 35 37 39
31 30 28 27 26 26 26 26 27 27 26 26 26 26 26 27 26 28 28 27 25 24 25 27 29 31 31 31 29 30 29 29 31 31 32 32 36 38
31 29 27 26 26 26 26 25 26 26 26 26 26 26 25 26 26 27 28 27 25 25 25 27 27 28 28 27 30 28 29 29 31 32 34 32 34 38
32 31 30 28 28 27 27 27 26 27 27 27 26 27 27 27 27 27 28 28 27 28 28 29 29 28 24 20 25 29 29 31 31 31 33 34 35 37
32 30 30 31 31 31 32 32 32 31 31 30 29 29 29 28 28 27 27 26 26 26 26 28 29 29 26 24 24 25 29 31 32 31 33 35 36 31
30 30 30 31 31 31 30 30 30 30 30 29 28 28 28 28 27 27 26 26 26 27 25 24 26 30 30 30 25 25 27 27 28 29 30 31 33 34
30 30 30 30 30 31 30 30 30 29 28 28 27 28 28 29 29 29 29 28 28 28 28 30 33 34 33 31 26 25 27 28 28 26 25 24 27 28
28 29 30 30 30 31 31 30 30 30 30 30 30 30 30 29 30 30 29 30 30 29 29 29 30 32 30 29 28 26 24 26 29 29 29 25 24 24

GFSNE_sfc_temp_141.txt.gz
Temp
74 74 75 77 77 77 76 76 68 65 62 68 69 71 69 68 66 68 67 58 52 51 51 53 55 57 57 58 59 60 61 62 62 62 62 62 63 63
73 72 73 73 74 74 73 71 73 71 67 71 68 71 72 70 66 66 65 59 51 50 50 50 52 54 55 55 56 57 58 59 59 60 59 60 61 60
73 72 72 74 72 71 72 72 69 69 66 72 72 69 67 68 68 65 64 64 64 49 48 49 49 50 51 52 52 53 54 55 56 57 58 58 59 58
68 69 71 72 70 71 70 67 67 70 67 67 71 67 70 69 66 64 61 61 62 54 48 48 49 49 49 49 50 50 50 51 52 53 54 55 56 56
68 66 68 69 65 65 66 65 66 67 65 66 67 66 66 64 60 52 49 50 48 48 46 46 47 48 48 48 48 48 48 48 48 48 49 50 51 52
67 66 65 64 65 64 64 65 65 64 64 66 64 62 58 57 54 52 48 45 47 44 44 44 46 47 47 47 47 47 47 46 47 46 44 43 44 46
63 64 64 61 54 59 62 63 64 64 64 65 61 49 47 45 46 48 47 43 40 39 40 41 43 46 47 46 48 47 45 44 44 43 42 41 41 42
60 61 62 53 53 47 48 45 52 65 63 60 56 48 48 47 49 50 45 38 40 38 37 35 37 37 38 44 44 43 43 42 41 40 39 39 39 39
62 59 57 57 54 57 44 42 42 41 39 56 55 59 56 54 52 47 42 42 42 37 37 33 33 33 35 38 40 40 39 39 39 38 37 36 36 37
58 58 57 55 55 55 53 48 48 47 47 48 50 50 48 49 49 50 46 36 34 35 35 32 32 31 32 32 36 37 37 36 36 35 34 34 34 34
45 43 53 52 40 45 50 45 40 38 39 39 39 38 37 37 38 40 36 36 32 33 33 33 31 30 31 32 32 36 35 35 34 34 34 34 34 33
38 36 35 38 37 38 45 45 43 38 40 38 36 36 36 35 35 41 39 38 33 32 33 32 30 30 27 31 32 32 32 34 34 34 33 33 33 32
35 34 34 34 35 36 36 37 35 35 34 35 36 35 34 33 34 34 35 37 35 34 34 33 31 30 29 27 30 31 31 31 32 32 34 33 33 33
32 32 32 34 34 34 33 34 34 35 35 34 33 32 31 30 31 32 32 33 33 34 34 33 32 30 28 26 26 29 30 31 31 31 31 33 33 33
31 32 32 32 32 31 31 31 32 33 33 32 29 28 29 30 32 31 32 32 32 32 32 32 33 31 30 27 26 27 27 29 31 31 32 32 32 32
30 30 29 29 29 28 29 30 29 29 28 27 27 28 30 29 28 30 29 29 28 27 30 32 32 32 28 28 28 27 29 28 31 32 32 32 32 33
31 30 29 29 28 27 27 27 27 28 27 27 27 27 27 27 27 29 28 28 25 25 26 28 30 31 31 30 27 29 29 29 31 30 30 30 31 33
31 29 28 27 26 26 26 26 27 27 27 27 27 28 27 27 27 28 28 27 25 26 26 28 29 28 28 28 31 29 29 28 29 30 30 29 31 35
32 32 31 30 29 29 29 28 28 29 30 30 30 30 30 29 29 29 30 30 28 29 30 31 31 29 25 21 26 29 28 28 28 28 30 30 32 35
32 31 30 31 31 31 32 31 31 32 31 32 32 32 32 31 30 29 30 29 28 28 29 31 30 30 26 24 23 24 28 29 29 28 31 33 34 31
31 31 31 31 31 31 31 31 31 31 31 31 30 30 30 30 28 28 28 27 27 26 25 25 27 30 30 30 23 23 25 29 27 29 30 30 31 32
30 30 31 31 31 32 31 31 31 31 31 30 30 30 31 32 30 29 30 29 29 29 28 30 32 34 33 29 24 24 25 26 27 27 26 25 25 27
29 30 30 31 31 31 32 31 31 31 32 32 32 31 32 31 32 32 31 31 31 30 30 30 32 33 32 30 27 25 25 27 29 27 26 26 25 25